GFSNGP_sfc_30mbdewp_054.txt.gz
Dewpoint
16 18 20 23 22 19 18 20 21 23 17 13 14 22 22 24 28 31 36 39 40 40 40 39 38 38 35 34 31 27 22 20 19 22 23 25 26 28 29 29 29 30 29 31
27 26 24 24 22 21 20 19 17 18 16 16 18 19 19 21 25 28 35 38 39 38 38 38 37 35 32 30 27 24 21 18 18 19 20 22 25 26 27 28 28 29 30 31
28 26 23 20 22 22 19 18 18 17 19 19 19 22 23 23 22 29 33 36 37 37 37 37 35 32 29 25 24 21 19 17 17 18 20 22 23 24 26 28 29 29 29 30
29 23 17 18 19 16 17 16 14 14 15 17 22 25 26 27 29 32 33 36 37 37 36 34 30 26 24 21 20 19 16 16 17 19 21 22 24 26 28 29 28 28 27 28
27 22 19 19 16 15 15 16 18 19 19 22 30 29 27 29 32 34 35 37 37 35 33 29 24 23 22 20 20 15 17 17 18 21 22 24 25 27 28 28 29 28 27 28
29 28 18 22 22 22 21 15 20 20 22 25 28 27 32 33 34 34 37 37 35 33 30 25 23 23 22 22 19 16 17 20 21 23 24 25 26 26 27 27 27 29 29 29
31 29 30 26 25 25 18 25 27 27 23 25 28 38 37 36 36 37 36 34 32 26 23 23 24 24 25 22 16 15 18 21 22 23 24 25 26 26 26 26 28 30 30 31
36 33 28 26 24 22 32 31 31 29 33 36 40 39 37 37 37 34 26 23 22 22 24 25 26 26 21 17 18 21 23 23 24 24 25 25 27 27 26 26 27 30 31 30
34 33 31 24 29 35 32 31 32 35 35 35 36 38 37 37 30 23 22 21 23 28 28 28 25 22 21 23 21 22 23 23 24 24 25 25 25 26 27 26 25 26 28 29
31 25 27 26 29 34 35 36 37 38 37 37 36 38 37 28 24 22 24 31 32 32 30 25 22 21 23 22 23 22 23 24 25 25 25 25 26 26 27 27 27 27 27 27
27 27 26 36 38 39 39 40 39 38 38 39 38 35 28 23 26 32 35 34 31 28 27 24 22 23 24 20 21 22 22 24 25 26 27 26 25 26 26 28 28 25 26 26
33 36 36 39 40 40 39 38 37 35 31 29 28 26 28 31 33 33 33 34 30 25 25 25 21 18 18 19 20 23 26 27 27 28 28 25 25 26 28 27 27 27 27 25
37 39 40 39 38 37 35 34 33 31 30 30 31 33 33 33 33 33 32 30 26 23 19 18 19 19 20 21 24 26 27 28 28 28 27 27 26 26 27 28 28 28 27 27
39 39 38 38 33 33 33 31 32 33 34 34 34 33 32 31 31 29 23 19 17 18 19 19 19 20 22 23 24 28 29 29 28 28 29 28 29 28 28 27 27 27 28 28
36 37 35 34 35 35 36 34 32 31 31 31 30 25 24 21 17 17 17 19 21 21 21 22 23 26 28 29 29 29 30 29 29 29 29 28 29 29 28 28 27 27 27 27
33 33 34 35 34 34 32 31 30 28 26 27 27 24 21 22 21 22 21 27 28 28 28 29 29 30 30 29 27 28 29 29 28 28 29 29 29 29 29 28 30 30 28 27
34 33 33 33 32 30 28 28 26 25 25 27 27 27 27 28 27 29 29 31 31 31 32 31 31 31 32 32 31 30 30 30 30 28 27 28 30 29 28 28 28 28 29 30
35 35 34 32 29 25 22 24 26 27 28 29 28 29 28 27 28 26 25 26 26 27 27 28 28 26 27 27 28 30 32 32 31 31 30 29 28 27 26 26 25 26 26 27
33 31 29 25 22 24 25 28 30 30 26 25 25 25 25 26 22 24 27 24 24 24 25 25 25 24 24 26 26 28 28 30 31 31 30 29 29 29 28 28 27 28 28 29
25 24 25 28 29 30 29 28 26 24 24 22 23 22 21 19 21 24 22 22 22 23 20 21 21 21 23 25 25 27 26 27 29 30 30 29 29 28 29 29 29 28 29 29
25 27 29 29 26 25 25 25 23 21 22 22 22 21 18 18 19 19 19 18 20 18 20 20 21 23 20 21 23 25 26 27 29 29 27 26 26 25 23 23 22 22 23 25
29 30 30 29 25 22 20 20 22 21 20 18 19 17 17 14 16 17 16 17 18 19 20 21 19 17 18 20 25 26 27 28 26 25 24 23 22 21 20 20 20 19 20 20
29 28 25 23 22 20 17 14 20 17 15 15 17 16 16 15 16 16 16 16 18 19 17 20 15 13 17 19 19 20 21 19 19 20 20 20 20 19 19 18 17 17 16 17
27 25 23 20 18 15 12 9 9 13 13 13 15 16 15 16 16 17 17 18 17 17 17 17 14 12 15 16 16 15 16 14 14 14 15 15 16 15 15 14 13 14 13 14
23 21 18 17 13 11 9 8 9 12 13 15 15 14 15 16 16 16 17 17 16 16 16 16 14 11 12 12 12 11 12 12 11 10 11 11 11 11 11 9 9 9 10 10
21 18 13 11 10 10 11 11 13 14 13 15 13 16 16 17 16 16 16 15 15 14 14 14 14 12 10 10 10 10 9 9 9 8 9 9 9 9 7 6 6 7 8 8
14 14 13 13 10 12 13 14 14 14 14 15 12 16 15 16 15 15 15 15 14 14 13 12 12 12 10 10 9 9 8 7 6 8 7 6 6 5 4 5 5 6 6 7

GFSNGP_sfc_30mbdewp_057.txt.gz
Dewpoint
20 22 25 22 23 24 23 22 21 21 23 22 21 24 23 26 26 35 38 41 43 43 43 43 40 37 35 35 32 31 28 22 23 23 23 23 25 27 28 29 30 29 30 31
26 29 26 23 24 24 23 21 20 20 20 22 22 21 21 24 28 32 39 41 41 41 40 39 38 35 34 33 31 24 20 20 21 21 21 22 24 25 26 27 29 30 31 31
27 25 23 22 22 22 22 23 21 17 20 23 22 23 23 24 26 30 39 39 39 39 39 38 36 34 31 28 23 20 19 20 19 20 22 23 24 25 26 28 31 30 30 29
26 23 20 23 24 18 18 18 17 19 26 29 27 28 29 29 31 33 37 38 38 38 36 34 31 28 24 22 21 19 19 18 20 20 21 24 26 26 29 29 28 28 29 28
26 22 24 22 19 15 15 19 21 22 28 27 28 32 33 34 36 36 38 38 36 31 26 24 23 22 21 20 19 19 19 18 19 23 25 25 26 27 28 27 26 26 29 28
33 24 18 24 22 22 20 18 28 24 25 27 27 31 35 34 37 37 36 33 29 25 24 24 25 24 23 23 23 23 21 23 23 26 27 26 26 27 27 27 26 28 29 29
26 20 25 32 24 25 16 22 29 31 37 34 35 38 37 33 27 28 26 24 24 25 25 26 26 24 20 20 21 23 23 25 25 26 24 25 27 27 27 28 28 29 29 29
34 28 21 33 24 21 32 33 33 36 39 39 38 37 35 27 23 22 22 26 27 27 27 25 24 22 23 29 27 23 24 25 25 25 26 25 25 26 26 27 27 27 28 28
32 30 35 35 34 34 33 35 37 36 37 39 38 37 25 23 22 27 29 29 29 28 27 26 25 25 25 24 25 24 24 24 25 26 26 26 25 25 25 26 26 26 25 25
33 32 29 37 38 39 39 38 39 39 39 38 38 27 23 23 32 33 32 31 31 29 27 26 26 25 23 25 25 24 23 24 25 25 26 26 26 25 25 24 23 25 28 28
30 37 39 40 40 40 40 40 33 30 32 34 28 28 31 33 34 34 33 31 29 28 29 27 25 23 24 24 24 22 22 24 26 26 27 27 27 26 25 25 26 25 25 25
28 39 38 39 40 39 36 33 30 29 30 31 32 32 32 33 33 33 33 33 31 29 25 24 24 22 21 20 20 22 25 25 25 26 27 27 26 26 27 27 27 28 28 28
39 40 38 34 34 34 32 32 32 32 33 33 33 33 33 33 33 33 33 32 31 25 22 20 20 20 21 23 24 24 23 25 26 27 27 27 27 26 25 26 28 29 29 29
40 37 34 33 32 32 34 34 34 34 34 32 31 32 32 31 31 30 24 22 22 23 24 25 26 26 27 27 28 28 28 28 29 28 28 28 27 27 27 27 26 26 27 28
37 37 35 36 35 34 33 32 32 31 32 31 27 24 23 22 22 24 29 29 29 28 29 28 27 27 31 32 31 30 29 29 29 30 30 29 29 29 27 28 28 27 27 27
35 35 35 35 34 32 31 31 31 30 26 25 25 26 26 27 28 29 29 26 24 22 24 27 29 30 28 27 26 26 28 29 29 30 31 31 30 29 29 29 29 29 29 29
34 34 34 33 31 31 29 28 27 27 26 26 27 26 23 25 22 21 23 25 25 24 26 27 24 23 23 22 23 25 26 27 27 25 25 28 30 29 29 27 26 25 25 25
35 35 34 32 26 27 27 28 28 27 27 27 24 21 21 17 20 22 24 23 22 23 20 22 21 20 21 23 23 20 21 25 25 25 24 26 29 29 27 26 25 25 25 26
34 33 29 25 27 28 29 28 24 22 24 21 19 19 18 18 20 20 21 20 20 17 18 19 21 22 17 17 18 19 20 21 23 25 25 26 28 28 27 27 26 26 26 25
28 29 30 30 30 29 28 26 23 20 22 21 17 13 15 16 16 17 17 19 17 18 19 21 18 15 15 17 19 21 22 23 24 25 26 25 25 23 23 22 22 20 20 21
29 28 26 25 24 24 22 22 22 19 21 17 14 13 14 15 15 15 17 17 17 18 17 18 13 11 14 17 17 18 19 17 17 19 19 20 20 20 19 19 18 18 17 17
29 26 24 23 21 21 22 19 18 16 17 15 14 14 14 16 16 16 16 16 19 16 18 15 11 9 13 15 14 14 15 13 12 13 14 15 15 15 15 14 14 14 14 14
29 27 25 22 18 15 19 17 15 13 15 13 13 13 14 17 17 16 14 18 16 15 17 14 10 9 11 12 11 10 11 9 9 10 10 12 11 12 11 10 10 10 10 11
24 23 21 21 18 15 11 16 16 14 15 16 15 15 16 14 14 16 17 16 15 14 14 14 11 10 8 9 10 8 8 8 7 7 8 8 8 9 8 8 7 7 7 8
23 21 19 16 14 13 11 14 16 15 17 15 14 16 16 16 14 15 14 15 14 13 12 14 13 11 8 8 9 8 8 7 6 6 6 5 5 6 5 6 5 5 6 6
17 15 14 14 14 14 15 16 16 15 15 12 11 12 15 16 15 15 14 14 13 13 11 11 11 11 8 8 7 7 7 5 3 6 4 2 3 2 1 2 2 4 3 4
18 15 14 14 15 15 15 16 13 13 15 11 9 9 16 15 14 13 10 10 11 13 10 9 8 8 7 8 5 7 5 2 0 5 1 -1 0 -1 -0 0 1 1 1 3

GFSNGP_sfc_30mbdewp_060.txt.gz
Dewpoint
23 23 26 25 23 24 23 23 21 21 23 22 23 23 25 29 32 41 42 41 43 46 46 40 38 38 40 40 40 37 31 26 26 25 25 24 24 24 26 27 28 30 32 32
22 27 25 24 24 24 24 23 22 22 21 25 24 25 24 26 28 37 40 43 44 45 44 42 41 41 40 37 31 24 23 23 24 22 22 23 24 25 26 27 29 31 31 32
21 25 25 23 23 23 23 23 23 20 20 24 23 23 24 25 25 37 41 43 44 44 43 42 40 38 34 27 23 22 22 22 23 23 22 24 25 26 26 29 30 28 28 30
25 24 21 25 26 24 22 21 21 26 27 27 29 33 34 33 33 38 40 41 41 40 38 36 33 28 24 22 22 21 21 21 21 23 25 26 25 26 27 30 28 27 27 29
26 24 26 24 21 13 14 20 25 26 28 31 33 33 34 37 38 38 38 36 33 30 28 25 23 22 22 21 21 21 20 21 23 25 25 25 26 27 28 28 27 26 27 28
31 24 21 22 23 21 21 18 28 28 27 27 31 27 34 34 33 30 27 25 24 24 24 23 23 22 22 23 24 22 22 30 28 25 26 27 27 27 27 28 28 28 28 29
27 25 21 25 27 24 12 15 32 34 33 33 34 35 31 26 25 25 25 25 26 25 25 24 22 21 21 22 24 25 26 26 26 26 26 26 27 27 26 26 26 27 29 29
29 24 24 30 25 21 26 35 38 38 38 38 36 28 25 24 26 26 26 26 25 24 23 23 24 29 31 31 25 25 24 25 25 26 26 26 26 25 26 25 25 25 25 25
30 27 31 35 31 35 35 36 37 38 40 37 29 25 24 28 28 28 27 26 26 26 27 28 27 26 24 24 24 24 25 25 25 25 26 26 26 25 25 25 24 23 23 24
33 34 35 37 39 38 38 38 38 39 39 37 26 25 30 30 29 29 30 30 28 27 27 27 26 24 23 24 25 25 24 24 24 24 25 26 26 26 25 25 24 24 24 24
36 39 39 39 40 40 33 32 32 31 35 28 27 31 32 32 32 31 30 29 29 29 27 25 24 24 23 23 25 24 24 23 23 25 26 26 26 26 26 26 25 24 24 25
30 37 35 38 40 35 32 31 32 31 31 32 32 32 33 33 33 33 31 30 29 29 25 22 22 22 24 26 26 25 25 25 25 26 26 26 26 27 28 28 27 27 27 27
38 39 38 35 33 32 32 32 32 32 32 32 33 33 33 33 32 32 32 29 24 24 26 26 25 25 29 30 31 30 29 29 28 28 28 28 28 27 27 28 29 28 29 29
35 34 32 32 32 34 34 34 33 31 32 32 32 32 32 28 26 27 27 27 26 24 23 26 28 29 30 28 27 27 26 27 28 29 29 29 29 29 29 29 28 29 29 29
36 36 33 34 33 33 32 31 31 30 25 25 25 24 26 27 29 25 23 21 21 25 27 28 26 23 23 23 22 22 24 25 26 26 27 27 26 24 26 29 29 29 29 29
35 34 34 33 32 31 31 31 26 25 25 25 26 27 27 25 22 22 23 24 24 24 25 21 19 19 22 23 22 20 19 19 20 22 24 22 23 23 23 26 27 28 28 26
34 34 33 31 31 31 30 28 25 25 26 23 22 22 18 18 20 21 22 24 21 20 21 19 20 22 19 16 16 17 19 20 20 20 21 22 23 24 24 26 27 26 25 25
35 34 33 31 29 28 27 26 26 26 23 21 17 16 17 18 18 21 22 18 17 18 18 21 20 15 14 16 19 19 20 20 20 21 23 24 23 24 26 26 25 23 23 24
35 31 29 28 28 27 24 23 24 21 20 17 14 16 17 17 18 19 19 17 17 16 18 17 14 12 14 16 17 18 18 16 16 18 18 19 19 19 20 20 19 19 19 18
27 29 30 29 28 23 20 21 22 20 16 13 15 15 15 15 15 17 17 18 16 15 19 13 10 10 14 14 14 15 14 11 12 13 13 14 14 15 15 15 15 14 14 14
28 28 27 26 25 23 21 20 19 16 14 13 14 14 15 15 16 16 15 15 15 17 15 11 9 10 11 13 10 11 10 8 8 9 10 11 10 11 11 10 10 10 11 11
26 25 24 23 21 20 20 18 19 17 14 13 13 14 16 16 15 15 16 14 14 16 14 12 9 7 8 10 9 8 9 6 6 6 7 7 7 8 7 7 7 7 8 8
24 23 21 20 18 18 16 15 16 14 13 13 13 15 16 17 15 13 12 15 15 14 15 12 9 7 7 8 7 6 6 5 5 4 5 5 5 6 4 5 5 5 5 6
24 21 18 18 20 16 14 14 16 15 14 15 14 15 14 11 14 17 16 14 12 11 12 12 11 9 7 7 6 5 5 3 2 3 3 2 1 3 1 2 2 3 4 4
22 20 18 17 14 15 17 16 17 18 16 15 16 17 17 14 12 15 13 13 12 12 10 10 11 9 6 6 5 4 4 -0 -1 2 0 -2 -1 -1 -3 -1 -1 -0 1 1
19 17 17 16 15 17 17 16 15 16 13 10 8 10 16 15 14 12 10 9 12 12 9 8 7 4 5 6 4 4 3 -2 -2 2 -2 -4 -4 -4 -5 -4 -3 -1 -1 -1
16 16 16 16 16 16 16 13 12 15 13 9 8 10 15 14 12 8 5 3 8 10 7 6 6 3 0 5 4 4 3 -2 -1 -0 -4 -6 -6 -7 -7 -6 -5 -3 -3 -2

GFSNGP_sfc_30mbdewp_063.txt.gz
Dewpoint
23 23 23 22 23 24 22 22 20 21 22 23 24 24 24 26 32 39 44 43 42 45 46 44 41 39 39 41 42 42 41 37 35 31 28 27 26 24 25 28 28 30 31 31
23 26 26 25 25 24 24 24 25 24 23 25 24 24 24 25 29 32 42 43 43 46 44 41 40 41 41 42 41 38 33 30 28 25 24 23 24 25 27 27 30 29 29 30
18 25 25 23 24 24 24 24 23 20 22 23 23 25 28 28 27 34 41 44 45 44 42 41 41 41 41 38 33 28 27 25 25 23 23 25 26 26 26 27 30 28 28 27
21 24 15 21 28 25 24 21 22 24 26 27 31 35 37 37 36 40 43 44 44 43 41 41 40 34 29 26 25 24 23 22 23 24 26 26 26 26 27 28 29 28 27 27
23 23 24 26 24 21 18 19 26 27 30 32 33 33 35 34 33 37 38 36 35 34 32 29 26 23 22 22 22 21 22 23 24 27 25 26 25 27 27 27 27 27 28 28
26 26 24 27 26 22 21 14 26 28 31 31 29 16 31 30 27 26 26 26 26 24 23 22 21 22 22 22 22 23 27 30 28 26 25 25 27 26 27 27 26 26 26 28
27 26 27 27 26 23 14 16 28 29 30 30 27 30 30 26 26 26 25 24 24 23 22 22 22 22 22 24 25 26 27 27 26 26 26 26 26 27 26 26 26 25 25 26
27 26 27 29 28 20 22 34 35 36 36 35 31 27 27 26 26 25 24 23 22 21 22 23 27 30 31 27 26 27 25 25 25 25 26 26 26 26 26 26 25 24 24 24
29 29 32 33 26 32 35 35 38 37 38 31 28 26 27 27 26 25 24 23 25 27 29 27 25 26 24 25 24 23 24 24 25 25 25 26 26 25 25 25 25 24 24 24
30 33 35 36 38 37 38 37 39 40 34 30 27 28 28 27 27 26 27 27 27 28 27 26 24 24 24 25 26 25 25 25 25 25 24 24 25 26 25 25 25 25 25 25
34 38 38 38 39 36 35 36 36 38 32 28 29 29 29 29 29 29 29 29 28 27 25 24 24 25 27 29 29 28 27 27 27 27 27 27 27 27 27 27 26 26 26 26
28 37 33 36 38 34 34 33 33 32 30 31 31 30 31 31 31 30 29 29 28 24 24 24 26 29 30 30 28 26 25 25 27 27 27 28 28 27 28 29 29 29 29 28
32 39 38 38 34 33 33 32 32 31 32 32 32 32 32 32 31 27 26 26 26 24 25 28 28 24 23 24 24 22 22 23 24 26 26 26 26 26 24 25 27 27 29 30
36 35 34 33 32 33 32 33 33 32 33 33 32 30 27 27 27 26 24 22 24 27 28 25 21 19 22 24 22 22 23 22 22 21 21 22 24 24 24 21 20 21 23 28
35 36 34 34 33 32 31 31 29 28 28 26 26 27 27 22 19 19 22 25 26 22 20 19 19 21 22 20 16 16 16 18 19 20 20 21 21 21 21 22 22 22 24 26
34 33 33 32 31 30 29 27 26 26 26 27 27 27 23 20 22 24 24 23 22 20 18 20 21 19 17 16 17 18 19 20 19 20 20 20 21 20 20 22 23 23 25 25
33 32 32 31 31 30 26 25 25 25 25 25 22 20 19 20 22 23 21 20 19 19 21 20 16 14 15 16 17 18 18 18 16 17 18 18 19 19 19 19 19 19 19 20
35 34 32 31 31 27 25 26 24 22 21 18 18 18 17 18 20 20 18 18 17 19 18 15 14 12 14 15 14 16 15 12 13 15 14 15 15 16 15 15 15 14 14 16
34 32 31 30 29 27 26 24 21 18 16 17 15 15 18 19 21 18 17 15 14 15 16 11 11 12 13 14 12 15 10 9 10 11 11 12 11 12 11 11 11 10 11 11
31 31 29 27 26 24 22 20 18 15 16 16 16 16 15 16 17 16 16 14 15 17 13 9 8 9 9 10 9 11 7 6 6 7 7 8 7 8 8 7 7 6 7 8
30 27 24 22 21 22 20 18 14 12 15 15 14 14 15 16 16 15 15 14 15 15 12 9 7 8 8 9 8 7 7 4 3 3 4 4 4 5 4 4 4 4 4 5
26 24 22 19 18 19 20 17 15 15 14 14 14 15 15 15 15 14 14 14 15 14 13 11 8 5 7 8 7 4 5 3 3 2 2 2 1 2 1 1 2 2 2 3
25 25 21 19 18 19 19 16 14 14 13 14 15 16 16 15 14 14 13 15 14 14 14 11 8 6 6 6 5 4 2 -0 -0 1 -0 -3 -2 -1 -2 -3 -1 -1 -1 1
25 21 20 18 16 15 14 15 14 15 14 15 15 15 15 13 14 16 14 13 11 10 11 11 9 8 5 5 4 3 1 -2 -3 -1 -2 -4 -5 -4 -5 -5 -5 -4 -3 -2
19 19 18 17 15 15 15 16 16 16 17 17 17 16 14 12 11 14 13 12 12 11 9 7 9 7 5 3 2 2 1 -3 -4 -2 -3 -5 -6 -7 -8 -8 -7 -7 -5 -4
18 17 17 17 18 18 17 18 17 15 12 9 10 12 14 15 14 12 8 7 11 10 8 6 5 1 -0 3 2 2 1 -1 -3 -2 -4 -7 -8 -9 -10 -10 -10 -9 -7 -6
18 17 17 18 18 16 15 15 15 14 11 8 7 11 14 12 11 8 3 2 6 7 6 5 4 3 0 -1 1 0 1 0 -3 -4 -6 -9 -11 -12 -12 -12 -11 -11 -8 -8

GFSNGP_sfc_30mbdewp_066.txt.gz
Dewpoint
22 23 22 21 21 24 24 22 20 21 21 22 23 24 24 25 26 34 41 44 47 49 48 46 44 43 42 42 41 42 42 43 42 39 34 31 29 28 27 28 27 29 30 30
22 26 26 25 25 25 24 24 24 24 23 25 26 24 24 25 26 28 38 44 43 46 46 45 43 42 43 43 43 43 42 41 36 31 26 24 26 27 27 27 28 30 29 29
21 26 25 22 24 24 24 25 24 22 24 23 23 26 31 34 34 33 38 42 43 45 45 43 43 43 43 42 41 38 34 31 27 24 25 26 27 27 26 26 29 29 29 28
20 24 18 20 28 26 25 25 24 24 25 25 27 35 34 34 39 42 43 45 44 43 42 42 41 40 37 34 32 29 26 24 25 26 28 27 26 25 26 28 28 28 28 28
20 20 21 21 25 25 22 20 22 23 28 32 35 35 34 29 30 34 37 37 37 37 35 31 29 28 27 26 24 23 23 24 26 28 26 26 26 26 27 27 27 27 27 26
24 20 18 23 27 22 20 19 24 28 31 32 30 21 26 27 28 27 27 27 27 26 24 23 23 22 21 22 24 26 27 28 29 27 26 26 26 27 27 27 26 27 25 25
24 24 26 29 25 21 16 16 25 29 32 31 23 25 27 27 26 25 24 24 24 24 23 23 23 23 23 25 25 27 29 28 27 27 25 26 26 26 26 26 26 25 25 25
26 25 24 29 26 19 21 29 30 30 32 33 30 28 27 26 24 23 22 21 22 22 24 27 28 28 27 26 27 27 26 25 25 25 25 25 26 26 26 26 25 25 24 24
30 29 33 30 27 27 29 31 34 33 35 31 29 28 27 25 23 22 22 24 29 27 26 26 26 27 25 26 25 25 25 26 26 26 26 26 26 26 26 26 25 25 25 25
30 31 32 34 36 36 36 36 38 37 32 30 29 28 26 24 24 25 27 28 27 26 24 24 26 28 29 29 27 27 26 26 25 24 25 25 26 26 26 26 26 26 26 26
31 35 38 38 38 36 37 38 38 33 31 29 29 27 26 26 27 27 28 28 26 25 24 27 29 28 28 27 24 23 23 23 24 25 25 25 26 26 26 26 27 26 27 27
27 29 29 31 37 36 36 37 35 31 30 30 29 28 28 28 29 29 28 24 25 26 27 28 25 22 23 24 22 20 19 21 22 23 22 22 21 21 23 23 23 24 24 23
32 38 37 37 35 34 35 34 32 31 31 30 30 30 30 30 29 27 26 26 25 26 27 21 20 21 23 22 21 20 19 19 20 19 20 20 20 21 20 20 20 21 22 23
37 36 35 34 33 33 33 33 33 32 32 32 31 30 28 27 26 24 23 26 27 25 21 19 21 21 21 18 16 17 18 19 19 19 19 19 19 19 19 19 18 19 22 22
35 35 35 33 32 32 32 32 31 30 29 29 28 26 24 22 21 23 26 23 20 19 19 21 18 15 16 16 16 18 19 19 19 19 19 18 19 19 19 18 17 18 18 17
34 33 32 31 31 30 30 29 28 27 28 28 24 21 21 22 24 24 24 23 19 18 19 17 14 14 16 16 16 17 17 16 15 17 17 17 17 16 16 15 14 14 14 15
33 32 31 30 29 28 28 28 28 27 27 24 21 21 22 22 20 20 19 19 20 20 17 15 12 14 14 13 15 16 14 11 13 14 13 14 13 13 12 12 12 11 11 13
34 33 32 31 28 26 26 26 26 25 23 21 20 21 21 21 20 19 19 19 19 16 13 12 12 13 13 12 13 13 10 8 10 11 10 10 9 10 8 7 8 7 7 8
33 32 31 28 27 27 27 27 25 21 19 18 17 18 20 20 18 18 16 15 16 15 11 9 12 11 10 10 11 10 6 4 6 7 6 7 5 5 6 4 5 4 3 5
31 30 29 29 28 27 24 21 18 17 18 17 17 18 19 18 17 15 15 15 16 14 10 8 8 8 8 7 7 9 4 3 3 3 3 2 1 1 3 1 2 2 1 2
29 29 28 26 24 23 19 18 18 16 17 18 16 16 17 16 16 15 14 13 15 13 10 8 7 7 7 7 6 5 4 1 1 1 0 -1 -2 -2 -1 -3 -3 -2 -2 -1
26 25 24 22 21 20 19 18 18 17 16 14 15 16 16 15 14 14 14 14 15 13 12 10 8 5 6 7 5 3 2 -0 -1 -0 -1 -4 -5 -5 -4 -5 -6 -4 -4 -4
25 24 24 23 22 18 17 16 16 15 14 15 15 15 16 15 15 13 12 14 14 13 13 10 8 6 5 5 4 2 1 -2 -4 -1 -2 -4 -6 -7 -7 -8 -8 -7 -7 -7
24 23 22 20 18 16 13 13 14 15 16 16 16 16 14 13 13 14 14 13 10 9 11 11 9 8 4 4 3 2 1 -1 -5 -4 -4 -5 -7 -9 -9 -11 -10 -10 -9 -9
22 19 18 18 17 16 15 15 16 16 16 16 16 15 14 13 10 14 12 11 11 11 9 7 7 6 2 2 1 0 -0 -2 -4 -5 -5 -6 -7 -10 -12 -13 -12 -12 -11 -10
22 22 22 21 19 18 18 19 17 16 14 12 12 13 13 13 13 12 8 7 8 9 8 5 4 2 -0 -2 -1 -0 -1 -1 -1 -3 -6 -7 -9 -12 -13 -13 -14 -13 -13 -12
20 20 19 17 17 17 17 16 14 13 10 8 9 11 13 12 10 8 4 2 3 5 5 3 3 3 2 -0 -1 -2 -2 -2 -3 -4 -7 -9 -11 -13 -14 -15 -15 -15 -14 -13

GFSNGP_sfc_30mbdewp_069.txt.gz
Dewpoint
19 19 22 22 23 27 26 25 23 24 23 23 24 24 25 26 26 26 31 42 48 50 51 50 50 49 48 45 45 45 44 43 43 43 42 39 36 33 33 33 30 29 30 32
21 26 24 22 23 24 26 25 24 23 23 25 26 27 25 27 31 28 30 35 45 49 49 47 47 46 45 45 45 45 44 42 41 40 36 32 30 30 32 29 30 31 30 31
20 26 25 23 24 25 25 26 25 22 23 27 25 24 29 33 36 39 40 42 44 47 47 46 45 44 45 44 44 43 42 39 34 29 28 30 30 29 27 28 32 31 31 31
21 24 20 23 27 26 25 25 26 25 25 25 26 34 34 33 38 43 44 44 44 44 44 44 44 44 43 40 37 34 31 28 27 29 29 28 28 30 31 29 29 29 30 30
22 22 22 21 23 24 22 17 23 24 25 29 35 35 33 30 32 36 39 39 40 40 39 39 38 37 35 33 28 26 25 27 30 29 27 31 32 29 29 29 29 29 28 29
24 20 19 22 24 26 22 19 23 24 26 32 35 27 28 30 30 30 31 33 32 32 32 32 32 32 29 24 24 25 28 29 29 29 29 28 28 28 28 28 27 28 27 28
23 22 24 27 26 23 21 21 21 27 31 34 29 29 29 29 27 27 28 28 28 28 28 27 27 26 26 29 30 31 31 29 28 27 26 27 27 28 27 27 28 29 29 28
25 24 22 30 22 21 25 25 26 31 34 33 30 29 29 27 26 26 26 25 25 25 24 25 26 27 27 28 28 27 26 26 27 27 26 27 27 27 27 27 27 29 29 28
28 26 32 29 28 26 27 26 31 31 35 32 30 28 27 25 24 23 24 26 27 27 28 28 27 26 25 25 26 27 27 27 26 24 23 22 21 20 20 19 20 23 24 24
30 31 32 33 32 34 32 31 35 36 34 31 30 28 26 24 24 26 27 26 25 25 26 27 28 28 27 27 27 24 23 22 20 19 18 18 18 18 20 21 21 21 21 22
31 32 36 35 37 36 36 38 37 34 33 31 29 27 25 24 26 27 26 25 24 26 27 26 25 24 22 22 21 19 18 17 17 18 19 19 18 20 21 21 22 21 21 22
29 31 30 28 34 37 36 37 34 32 30 30 29 26 25 26 28 27 25 25 27 27 24 21 21 21 19 18 16 14 14 15 18 18 19 19 19 19 20 20 20 20 22 23
32 37 36 36 36 37 37 36 32 31 30 29 28 27 27 29 27 25 26 27 28 24 20 21 20 17 15 15 15 16 16 17 17 18 18 18 18 17 16 18 18 19 19 18
37 36 35 35 35 34 35 33 32 31 30 29 29 29 29 27 26 26 27 26 22 19 20 19 15 14 14 14 16 18 18 18 17 18 18 17 17 17 17 16 15 15 15 15
36 35 36 34 33 33 33 32 31 30 30 29 29 28 26 25 25 26 23 20 19 20 19 14 12 14 15 15 15 16 15 13 16 17 17 17 16 15 15 13 13 12 12 12
34 33 33 33 32 32 32 31 30 29 28 27 26 24 24 25 23 21 19 19 18 18 14 15 14 14 14 14 14 14 12 13 14 14 13 13 12 12 12 11 11 10 10 9
33 32 32 31 31 31 30 30 29 28 26 24 23 23 23 22 20 19 19 19 17 16 14 14 13 13 12 12 14 11 10 9 12 11 10 11 10 10 10 8 8 8 7 7
34 34 33 32 30 29 29 29 28 26 24 25 25 24 23 22 19 19 19 17 15 13 11 12 13 12 10 10 12 9 8 7 9 9 8 9 7 7 8 6 5 5 5 4
33 31 29 28 28 28 27 26 25 25 25 25 24 23 22 21 19 18 18 17 15 11 9 11 12 9 7 9 10 7 6 5 6 5 6 5 4 4 5 4 3 3 3 2
29 29 28 28 28 26 25 25 25 24 24 23 22 21 19 19 17 17 17 16 14 11 9 8 7 7 6 5 6 6 4 4 3 3 3 2 2 1 2 -0 -1 -0 1 1
28 27 26 24 23 24 24 24 23 22 22 22 20 19 18 17 16 16 15 13 13 11 9 8 7 6 5 6 4 5 4 3 2 2 2 1 0 -0 -1 -1 -2 -2 -1 -1
25 23 23 23 22 22 22 22 20 19 18 18 18 17 16 16 16 15 16 14 13 12 11 9 8 6 6 7 6 6 4 2 1 1 1 1 -0 -1 -2 -3 -4 -4 -3 -3
24 23 22 21 20 19 19 18 17 17 16 16 16 16 15 14 13 12 12 13 14 12 12 11 9 7 6 7 7 6 4 3 2 0 0 0 -1 -2 -3 -4 -6 -6 -6 -5
23 22 20 19 16 16 14 14 15 17 18 17 17 17 14 14 14 14 15 13 11 12 13 12 10 8 6 6 5 4 4 4 3 1 0 -3 -1 -2 -3 -5 -7 -7 -7 -7
22 22 22 21 20 19 17 16 15 16 17 17 16 15 14 14 14 15 14 13 12 11 11 8 7 7 6 4 3 3 3 2 2 2 1 -0 -1 -3 -4 -5 -7 -8 -9 -8
22 21 21 21 19 19 18 18 17 17 16 14 14 15 15 15 14 14 11 9 9 8 9 7 6 6 5 4 3 2 2 2 2 1 -1 -1 -2 -4 -5 -7 -8 -9 -9 -9
19 19 17 16 16 16 17 17 16 13 12 13 13 14 14 14 12 10 8 7 6 5 5 5 4 4 4 3 2 2 1 1 0 -1 -1 -2 -4 -6 -7 -9 -10 -11 -11 -11

GFSNGP_sfc_30mbdewp_072.txt.gz
Dewpoint
18 16 15 16 15 18 20 19 15 19 17 17 22 23 24 26 28 28 28 31 37 44 49 52 54 54 54 52 49 48 48 46 45 45 44 43 42 42 40 36 37 37 31 29
20 20 20 18 19 19 22 21 21 22 19 21 22 25 27 27 28 28 29 31 34 43 50 51 52 52 50 49 48 47 46 45 44 42 41 40 39 37 36 35 34 29 31 34
19 24 24 24 24 22 22 25 24 19 19 21 22 25 27 28 32 34 38 41 42 45 49 50 50 49 48 47 47 45 43 42 41 38 36 34 32 31 31 31 33 35 33 30
21 26 22 21 26 24 23 23 24 24 24 24 22 28 33 34 36 42 43 44 45 47 48 48 48 49 48 47 45 43 41 37 33 31 31 31 30 31 34 36 33 30 29 28
28 23 20 23 24 25 24 22 22 22 22 21 26 31 32 34 37 41 43 44 45 46 47 47 47 45 43 41 39 37 33 28 29 30 30 33 36 37 32 29 28 26 25 25
28 25 22 22 24 27 26 21 23 23 24 25 32 27 26 35 37 38 39 39 40 41 42 42 41 40 37 35 32 29 27 30 31 32 33 34 32 28 26 25 24 25 25 26
29 29 25 29 28 27 21 22 26 25 26 31 31 30 35 35 35 36 36 36 38 39 39 39 38 35 32 29 27 30 32 30 30 30 29 27 26 25 25 25 27 30 31 29
31 30 25 29 26 23 25 32 29 30 31 33 34 33 34 34 34 34 34 34 35 35 34 33 32 31 30 30 30 30 29 28 27 26 24 25 26 26 25 23 22 23 30 26
30 28 34 30 27 29 32 28 31 31 34 36 33 33 32 33 33 33 33 32 31 31 30 30 29 29 29 28 27 27 27 26 25 23 22 20 19 16 15 15 18 21 22 22
33 29 32 34 31 35 31 32 33 35 35 36 32 31 31 31 30 31 30 30 30 29 28 27 27 26 26 27 28 26 23 22 20 17 15 14 11 13 16 19 19 18 19 21
31 32 35 36 37 35 34 36 37 37 36 34 32 31 30 29 30 30 28 28 28 28 27 26 26 25 24 24 22 20 17 15 14 16 16 15 15 18 19 19 20 20 20 20
32 32 33 30 37 39 37 37 37 35 34 34 32 30 29 29 29 28 27 27 27 27 26 24 21 19 17 16 15 13 12 14 17 17 17 16 15 18 20 20 20 20 20 19
34 38 38 38 37 37 39 38 38 35 34 32 31 29 29 29 28 27 26 27 26 24 23 20 16 14 13 14 13 13 13 14 16 16 15 15 15 15 14 18 17 17 17 16
39 38 37 37 36 37 37 36 34 33 32 31 29 29 29 28 26 26 27 27 25 23 20 16 12 11 12 14 15 15 15 17 15 16 16 16 16 16 15 15 15 15 14 14
38 38 37 36 35 35 35 33 32 31 30 30 29 30 28 27 27 28 26 22 20 18 15 12 11 12 13 14 12 12 12 13 16 17 17 16 15 15 14 13 13 13 12 12
37 36 35 35 34 34 34 33 32 31 30 30 29 28 27 28 26 22 21 21 22 20 14 16 13 12 13 12 11 10 11 14 14 13 13 12 12 12 12 12 11 11 11 11
35 34 34 34 34 34 34 33 32 30 30 29 28 27 24 23 23 23 22 22 20 19 19 17 12 11 11 11 9 8 8 9 12 9 10 10 11 11 11 10 10 9 9 10
36 35 35 35 34 33 32 31 29 28 27 28 27 26 25 24 22 21 20 18 17 16 15 14 12 9 8 10 8 8 9 8 9 10 9 11 9 9 9 9 8 8 8 7
34 33 33 32 32 31 30 28 28 27 26 27 26 25 24 23 22 19 18 18 16 13 12 12 13 7 7 11 8 8 8 9 8 7 8 7 8 7 8 8 7 6 6 6
30 30 30 29 29 28 27 27 27 26 26 25 24 22 21 21 20 20 20 17 14 11 9 8 7 6 5 5 6 6 7 8 5 6 7 6 7 6 6 4 4 5 5 5
27 27 26 25 25 26 26 26 25 25 25 25 22 21 20 20 20 18 15 12 12 10 9 8 7 6 5 5 4 8 8 7 6 6 6 6 5 5 5 5 4 4 3 3
24 24 24 24 24 24 25 24 23 22 21 20 20 19 19 17 17 16 17 13 12 12 10 9 8 8 7 8 7 8 7 6 6 6 5 5 4 4 4 3 2 1 1 1
24 23 23 22 21 21 21 20 21 21 20 20 19 18 15 14 13 13 12 13 12 13 11 12 11 10 9 10 9 8 7 6 5 5 5 4 4 3 2 1 0 -0 -1 -1
23 22 21 19 16 16 18 18 16 17 18 17 17 17 15 15 15 14 14 14 13 13 13 13 12 10 9 9 8 7 6 6 5 5 4 3 3 3 2 0 -1 -1 -2 -2
23 23 23 21 19 18 16 15 17 19 18 17 16 15 15 16 17 16 17 15 13 12 12 10 10 9 8 8 7 5 5 5 5 3 3 3 2 1 0 -0 -1 -2 -3 -3
21 21 21 21 20 20 20 19 18 18 18 16 16 17 18 17 16 15 15 13 11 9 9 9 7 6 7 6 5 4 4 3 3 2 1 1 1 -0 -1 -2 -3 -3 -3 -4
20 18 17 17 17 17 18 17 16 15 16 16 15 15 15 15 14 13 12 11 10 8 8 7 6 6 5 4 4 3 3 2 2 0 -1 -1 -1 -1 -2 -3 -4 -4 -5 -6

GFSNGP_sfc_30mbdewp_075.txt.gz
Dewpoint
17 16 15 13 15 16 16 19 18 19 16 13 15 17 19 22 24 25 23 24 29 35 42 47 50 51 52 54 55 54 53 51 50 48 48 47 46 46 45 43 43 41 41 40
16 18 16 13 13 14 13 14 15 15 15 17 19 18 19 20 23 25 26 27 29 33 40 48 52 53 54 53 51 51 49 47 47 47 46 44 43 42 42 39 38 38 38 31
20 18 18 18 17 16 16 16 17 17 18 19 18 18 20 20 21 28 31 36 37 37 44 50 53 52 50 49 50 48 48 47 45 44 42 41 38 37 36 35 34 34 33 36
25 26 21 21 22 20 18 17 19 20 19 19 20 20 22 30 30 33 39 41 43 46 48 50 51 50 49 48 47 46 44 43 42 41 38 35 33 32 33 34 36 36 34 31
27 25 22 19 23 22 19 18 19 19 21 21 20 26 26 31 34 39 42 44 46 47 48 49 50 49 47 45 44 43 41 40 37 35 32 32 33 35 38 37 33 31 28 25
32 25 21 22 24 24 22 20 21 21 21 22 21 24 19 34 38 41 42 43 45 47 48 47 47 46 45 43 41 39 36 33 32 31 32 34 36 36 32 30 26 23 23 25
32 29 24 22 24 24 23 22 22 23 22 23 22 27 36 37 39 39 39 41 42 43 44 44 42 41 39 38 36 33 31 31 33 33 33 33 31 28 26 24 25 30 32 31
32 31 28 30 28 24 27 27 29 29 26 27 31 37 37 37 37 37 38 39 40 41 41 40 39 38 36 34 33 33 32 31 30 29 27 28 26 26 25 24 26 25 32 27
29 30 31 31 28 31 29 30 31 30 29 32 37 36 36 35 36 36 37 37 38 37 36 35 35 34 33 33 32 31 30 29 29 27 24 22 22 21 18 15 18 22 22 23
27 27 31 32 34 32 33 33 32 34 33 35 37 34 34 35 36 35 35 35 35 34 34 33 33 32 31 30 29 29 28 27 24 21 18 14 11 13 17 20 20 18 19 22
26 26 27 34 35 36 34 35 33 34 33 35 35 34 33 34 34 34 34 33 33 33 32 30 29 29 29 29 28 26 23 19 18 16 17 16 16 19 19 21 22 22 22 21
31 30 31 30 35 37 37 36 37 36 35 35 35 33 32 32 33 32 32 32 31 31 29 28 27 26 25 24 22 18 16 16 19 19 17 15 14 22 18 20 21 21 19 19
29 34 37 40 38 38 39 38 38 38 36 35 34 33 32 31 32 30 30 30 30 28 26 23 20 16 15 16 15 16 17 17 16 16 15 15 15 15 15 21 19 19 18 16
33 38 36 37 36 38 38 37 37 37 35 34 33 32 31 31 29 29 29 29 27 25 20 16 14 14 15 16 16 15 16 17 16 17 17 17 16 17 16 16 18 17 18 15
38 39 38 38 37 36 36 35 34 33 33 32 31 31 31 29 28 29 28 25 23 18 15 14 15 16 15 15 13 12 14 15 18 19 18 16 16 16 16 15 15 14 13 14
37 37 36 36 36 35 35 34 33 32 31 31 31 31 29 29 28 25 23 20 19 22 23 23 21 21 15 11 11 11 13 14 16 13 14 13 13 13 13 14 13 13 13 12
38 37 37 36 36 35 35 35 34 32 32 32 31 30 28 24 24 23 22 23 23 22 22 20 17 16 13 10 8 9 9 11 13 10 11 12 13 13 12 12 12 11 11 12
38 37 37 38 36 35 34 34 33 32 31 27 26 25 24 22 21 20 20 21 21 20 20 17 11 10 11 10 8 9 10 10 10 12 11 13 13 11 11 11 10 10 10 9
36 36 35 34 34 32 31 29 28 27 27 27 25 24 23 22 22 21 19 19 19 18 15 15 12 8 8 12 9 10 11 12 11 9 11 10 11 10 10 10 9 8 8 8
32 32 31 31 31 30 28 28 28 26 26 25 24 23 22 22 22 22 22 19 18 14 11 8 7 6 5 5 8 8 10 11 9 8 10 9 10 10 9 8 8 7 8 9
27 27 26 26 26 27 27 27 26 25 25 25 23 22 21 21 21 20 18 14 11 12 11 9 7 6 6 6 6 11 11 10 9 9 9 9 9 8 8 8 8 7 7 7
25 25 25 25 25 25 26 25 24 23 22 22 22 21 20 19 19 18 17 14 12 12 10 10 10 10 8 10 9 11 9 9 8 8 8 8 8 7 7 6 6 6 5 4
25 25 24 24 23 23 23 23 23 23 22 22 22 20 16 16 18 17 13 13 13 14 13 15 12 11 10 13 11 10 9 8 8 8 7 8 8 6 6 5 4 3 3 2
25 24 24 24 23 21 20 21 19 18 19 19 20 21 20 19 17 14 14 15 14 17 17 14 12 10 9 11 11 9 8 8 7 9 7 7 7 7 5 5 4 3 2 1
23 22 22 20 19 18 18 19 19 19 18 18 18 18 18 19 20 19 18 15 13 17 16 10 9 8 10 10 9 8 8 7 8 5 4 6 5 4 4 3 2 2 0 -1
21 22 21 20 20 20 19 19 19 19 18 18 18 18 18 18 17 17 15 14 12 11 11 12 9 7 9 9 7 7 6 6 6 5 4 2 2 2 2 1 1 -0 -1 -1
19 18 18 17 17 18 18 18 17 16 17 18 15 16 16 17 15 13 14 13 11 11 10 10 9 8 7 5 5 6 5 6 6 3 0 1 1 0 0 -0 -1 -2 -2 -3

GFSNGP_sfc_30mbdewp_078.txt.gz
Dewpoint
19 18 17 18 19 19 18 18 17 21 20 20 19 15 21 24 28 26 25 23 24 28 40 44 46 50 52 57 56 56 55 53 50 49 49 48 48 48 48 47 46 45 45 45
23 19 19 17 17 17 17 16 15 16 16 16 16 17 22 21 19 20 25 26 30 29 32 46 50 52 55 55 53 52 50 48 49 48 48 48 47 46 44 44 44 44 43 42
24 23 18 16 18 16 13 15 15 14 17 18 19 19 20 20 23 23 23 30 35 36 36 52 54 53 51 50 50 48 48 48 48 46 45 44 43 43 42 41 40 39 38 38
26 25 20 21 22 20 18 18 19 18 18 19 20 19 20 24 27 27 35 37 39 41 51 52 51 50 50 50 48 47 47 46 45 44 42 41 40 40 38 37 36 36 38 36
28 25 24 21 22 21 21 21 21 20 19 20 20 25 23 28 32 32 39 41 43 47 51 51 50 49 47 47 46 45 44 44 43 41 39 38 36 36 36 37 38 36 33 31
31 26 25 27 25 25 25 21 23 22 22 23 23 23 25 34 37 42 43 45 47 49 50 49 49 47 46 45 43 43 43 42 41 38 35 34 35 37 39 38 34 31 27 33
29 30 27 26 25 26 22 24 26 26 24 24 23 31 35 37 39 41 42 44 47 48 48 49 47 46 44 43 42 41 39 37 34 33 33 36 37 35 31 28 32 33 32 29
33 30 26 30 28 23 27 31 29 29 28 28 36 38 38 38 39 39 40 43 45 45 45 45 45 44 42 40 38 35 33 33 34 35 33 32 30 26 26 29 31 30 28 28
31 30 35 34 30 32 31 33 33 33 32 31 38 39 38 38 38 38 39 41 42 42 42 41 41 40 37 34 34 34 34 33 30 28 28 27 27 27 23 21 23 27 25 25
33 31 34 38 41 36 35 34 34 34 35 34 39 38 37 37 37 37 38 39 39 39 37 36 36 35 34 35 34 32 31 30 28 24 20 17 16 19 22 24 23 21 22 23
27 28 28 29 36 37 37 37 36 34 35 35 39 37 36 36 36 36 37 37 37 36 35 34 34 33 33 32 31 30 28 24 20 19 19 22 21 23 24 22 24 24 24 23
29 29 30 31 34 37 38 34 34 36 35 36 37 36 35 35 36 36 35 35 35 35 33 31 30 29 30 29 27 24 20 23 24 22 19 21 21 19 23 21 21 19 18 19
26 32 37 41 38 38 40 40 39 38 38 37 36 36 35 34 35 34 34 33 32 30 29 26 19 18 20 22 22 22 20 19 19 20 20 18 17 20 23 21 21 20 19 18
28 25 37 38 39 38 37 37 37 38 37 36 36 35 34 33 33 32 32 32 29 24 19 17 17 17 18 17 18 18 20 23 22 23 22 22 21 20 18 19 20 21 20 19
38 40 39 39 37 36 36 35 35 35 35 34 34 33 32 31 31 30 28 24 19 17 17 18 19 20 22 20 19 23 23 24 25 24 19 18 18 17 17 17 17 17 17 20
28 37 38 37 36 36 35 35 34 33 32 32 33 32 30 28 25 24 23 21 22 22 23 23 23 24 17 17 21 20 19 19 17 16 15 15 16 16 16 17 16 16 16 16
39 38 37 37 36 36 35 35 33 32 34 31 28 26 25 24 24 23 23 23 23 22 22 22 22 24 22 13 12 14 14 15 15 14 15 15 15 16 15 15 15 15 14 15
39 38 38 39 37 35 33 32 31 30 27 26 25 24 22 21 20 21 21 22 21 20 20 21 20 16 12 10 11 13 15 13 13 13 13 15 14 13 13 13 14 14 14 12
36 35 34 34 32 31 29 28 27 27 26 24 22 21 21 21 21 22 22 20 19 17 17 14 10 8 10 13 10 14 14 14 13 11 13 12 13 14 14 13 13 11 11 12
31 31 30 30 29 28 26 26 26 24 25 24 23 21 21 22 22 20 20 18 18 16 11 9 8 6 6 7 10 12 13 13 12 11 13 12 13 14 11 11 12 12 11 11
27 26 26 26 26 26 26 26 25 24 24 24 22 21 20 21 21 20 18 15 16 13 10 9 9 8 7 9 9 14 14 13 12 12 12 12 12 12 11 11 11 10 9 10
25 24 24 24 24 23 24 24 23 23 22 22 21 21 20 20 19 19 19 15 13 13 12 13 11 11 9 12 14 14 12 12 11 11 11 11 10 10 9 9 9 8 8 6
25 25 24 23 23 23 23 23 23 23 22 22 22 22 21 21 22 16 14 14 15 19 16 13 12 11 8 14 14 13 12 11 12 11 10 11 9 9 8 9 9 8 7 7
25 25 24 24 23 20 20 19 19 19 20 19 20 22 22 18 17 16 16 16 17 16 14 12 10 8 8 15 13 12 10 10 10 11 8 5 8 8 7 7 7 8 7 6
25 24 23 21 20 20 20 19 20 19 20 19 19 18 18 19 19 20 17 15 13 17 13 10 10 8 11 13 11 9 10 9 10 8 9 7 5 6 6 5 6 6 4 3
22 22 23 22 21 21 21 21 21 20 18 18 19 19 19 19 19 16 14 14 13 11 13 14 13 11 10 8 6 8 8 7 8 7 6 4 4 5 4 3 3 3 2 2
19 18 18 18 18 18 18 17 16 17 19 17 15 15 16 18 16 16 14 12 12 12 11 11 10 9 9 7 8 6 5 6 6 5 4 3 2 3 2 2 1 -0 -1 -1

GFSNGP_sfc_30mbdewp_081.txt.gz
Dewpoint
24 22 22 23 21 21 19 22 22 25 26 26 24 21 22 26 25 28 28 27 27 38 39 41 46 53 54 56 56 56 56 55 54 53 52 51 50 50 49 49 48 48 47 46
24 25 23 21 23 20 20 20 19 19 22 22 22 20 21 22 27 28 28 28 28 32 41 45 52 55 56 55 53 53 51 50 50 49 49 49 49 48 47 46 46 46 46 46
25 26 25 23 20 21 23 22 19 17 18 19 19 20 20 22 23 25 26 33 34 39 49 53 53 53 52 50 50 49 49 49 48 48 47 46 45 45 45 45 45 44 44 43
29 28 22 24 23 22 21 21 20 20 20 20 19 20 25 27 27 31 35 37 42 52 52 51 51 50 49 49 49 48 47 47 46 45 45 45 44 44 43 42 42 42 40 39
32 26 28 28 23 22 21 21 22 21 22 21 22 24 29 32 33 35 39 41 49 52 50 50 49 49 48 47 47 47 46 45 45 43 42 42 42 41 40 39 37 36 38 35
32 29 25 27 28 25 25 20 24 23 23 25 25 22 27 35 41 43 44 48 51 50 49 48 47 47 47 46 45 45 44 43 42 42 41 41 40 38 38 38 37 34 32 31
30 30 31 30 28 28 22 22 24 27 27 24 27 30 33 41 42 43 45 49 50 49 49 47 47 46 44 44 44 44 43 42 41 39 37 37 38 38 37 34 33 30 28 28
30 30 28 32 28 25 28 29 29 30 32 32 34 37 38 39 41 42 44 47 49 48 48 47 46 45 43 43 43 42 40 36 34 34 35 37 35 31 33 32 30 28 26 28
31 30 35 39 37 40 39 38 34 34 35 36 38 38 38 39 40 41 43 45 46 46 47 46 45 44 42 37 35 35 34 34 35 32 32 30 28 28 30 30 29 27 25 26
31 31 28 34 39 36 36 35 37 36 36 39 36 39 38 39 39 39 41 42 42 42 41 41 40 37 35 35 35 34 31 29 27 23 22 22 25 27 26 26 25 24 24 26
31 33 32 30 33 34 35 33 38 35 35 36 39 39 38 38 37 38 39 39 38 36 34 34 34 34 34 34 33 30 24 23 23 23 22 22 25 25 23 25 26 24 23 24
30 32 32 30 34 36 33 34 38 37 35 36 40 38 37 37 37 37 37 36 34 33 27 21 21 23 25 27 25 24 23 23 23 23 24 22 21 22 25 23 22 21 22 22
26 32 37 39 39 39 39 38 39 39 38 37 38 37 36 37 36 35 34 31 23 19 19 18 18 19 22 23 23 22 22 24 24 24 24 25 26 23 20 22 24 22 20 18
38 36 38 40 38 37 36 37 37 36 37 38 37 36 35 34 33 30 23 19 18 18 19 20 20 21 25 25 26 26 27 27 26 26 26 25 25 25 24 23 22 22 21 20
38 40 39 38 36 36 36 36 35 34 34 33 33 33 29 25 20 18 19 20 22 22 22 23 22 24 25 26 26 25 26 26 25 24 23 23 22 21 20 20 18 17 18 22
30 38 38 36 36 36 35 34 33 34 30 27 25 24 23 23 22 23 23 23 21 22 23 23 23 24 26 25 23 22 22 22 22 21 20 19 20 19 18 17 17 17 16 18
36 37 37 36 36 34 33 31 30 27 26 25 24 23 22 22 22 22 22 22 21 21 22 21 21 23 23 23 22 22 21 17 17 19 19 18 18 16 14 15 14 15 15 14
35 36 38 35 32 30 28 27 26 25 23 23 22 21 21 20 19 19 19 19 19 19 19 20 20 19 15 14 15 16 16 16 15 15 15 13 13 14 15 14 14 13 11 12
32 31 31 30 29 28 26 25 24 24 23 22 21 21 21 21 20 20 20 18 17 16 17 13 10 9 10 14 14 15 15 13 12 13 14 12 11 14 12 10 12 12 12 11
28 27 27 26 26 25 24 24 23 23 23 22 22 20 19 19 19 18 17 17 17 16 13 12 10 8 9 10 14 15 14 13 13 13 12 12 12 11 11 12 12 10 9 9
25 25 25 24 24 24 24 23 22 21 22 22 20 19 19 19 19 18 15 14 16 12 12 11 11 9 9 14 15 13 12 11 10 10 10 10 9 9 9 8 8 8 7 6
23 23 22 22 22 22 23 23 22 22 21 21 20 19 18 17 17 16 15 13 14 15 13 12 11 7 9 14 14 12 11 10 10 10 10 8 7 6 7 7 7 7 6 5
23 23 23 22 21 21 22 22 22 22 21 20 19 19 19 18 16 15 14 18 16 14 13 10 7 8 10 12 12 10 8 8 9 8 6 5 6 6 6 6 6 6 6 5
23 22 22 22 22 20 19 20 20 20 19 19 20 18 16 16 16 16 16 15 10 8 7 6 7 9 9 7 6 7 8 8 8 7 6 5 4 3 4 4 4 4 4 3
24 23 23 21 19 19 19 19 18 18 17 17 17 17 17 17 14 15 12 13 14 12 10 11 8 8 5 3 5 6 5 6 6 6 5 3 2 2 2 2 2 1 1 0
22 21 22 22 21 21 19 18 17 17 16 16 16 16 17 16 15 14 13 12 11 10 10 9 8 6 5 5 5 5 3 4 4 4 1 0 1 1 -0 -1 -2 -3 -3 -3
17 17 16 16 15 15 15 14 15 15 14 12 12 13 12 12 11 11 9 8 6 7 6 6 5 4 3 3 1 0 2 3 0 -2 -3 -2 -1 -1 -3 -4 -5 -4 -4 -3

GFSNGP_sfc_30mbdewp_084.txt.gz
Dewpoint
24 23 24 23 23 23 22 23 22 22 24 26 27 27 27 24 25 27 28 28 28 35 41 46 47 49 50 51 54 55 54 55 56 56 57 56 55 54 52 51 50 49 49 48
24 26 25 27 27 23 23 22 23 23 24 26 25 28 25 23 26 27 27 27 28 31 39 43 48 50 53 54 55 55 55 54 53 52 52 52 50 50 50 49 49 48 47 47
22 25 25 25 26 26 25 26 23 20 22 24 24 23 21 22 24 26 28 28 32 36 42 49 53 54 53 53 53 53 52 50 50 49 48 48 48 48 47 47 47 46 46 46
26 26 22 30 29 27 25 25 24 21 20 20 20 21 22 24 25 27 32 37 48 50 51 52 51 51 51 51 50 49 49 48 49 48 47 46 46 46 45 45 45 45 45 44
30 28 27 28 27 23 23 22 23 21 20 22 23 27 28 31 32 34 37 42 49 51 50 50 49 49 49 49 49 49 48 47 47 46 46 45 44 44 44 44 44 43 43 40
31 28 25 27 28 29 26 21 25 24 23 25 25 22 24 34 39 40 44 49 50 50 49 49 48 48 48 47 47 47 46 45 45 44 44 43 43 42 42 41 38 36 34 33
31 29 30 32 33 29 25 23 26 26 26 25 24 27 29 40 43 46 49 50 50 49 48 47 47 47 46 46 45 45 44 43 43 43 43 42 42 41 39 35 32 31 30 29
30 28 26 33 33 26 30 34 34 31 32 27 31 34 38 42 43 47 49 49 49 48 47 46 46 46 45 44 44 43 43 42 42 40 38 39 37 36 34 32 29 29 28 27
27 26 30 35 38 39 39 37 36 36 36 34 34 36 40 41 43 46 48 48 48 47 46 45 45 44 43 42 41 38 36 35 36 35 32 33 34 33 32 31 29 29 27 26
33 30 32 34 40 38 35 35 35 35 38 38 36 38 39 40 41 44 44 45 46 45 43 41 39 37 36 36 35 32 28 26 26 27 26 26 27 28 29 28 27 28 29 27
29 29 32 31 34 33 33 34 35 36 37 38 38 38 39 39 41 41 40 38 37 31 27 27 29 32 33 29 26 24 24 23 23 24 25 24 24 24 24 27 28 26 26 26
27 29 31 25 33 32 33 33 35 36 36 38 38 38 39 38 39 37 34 25 23 23 23 23 23 24 25 25 23 23 24 25 26 26 25 25 25 25 26 26 25 25 25 24
29 29 34 36 39 41 38 38 39 40 39 37 40 39 38 37 35 25 23 21 20 20 21 23 24 25 26 26 25 25 25 26 27 28 28 28 27 26 25 26 27 26 25 21
35 40 38 39 37 37 38 37 37 36 37 38 37 35 31 24 22 21 20 20 20 21 23 25 26 26 28 28 28 28 28 27 26 26 26 25 25 25 24 24 23 23 25 25
35 39 38 37 37 36 36 35 32 30 28 27 26 23 22 21 21 21 22 22 23 23 24 25 24 24 26 26 25 25 25 24 24 24 24 24 24 23 23 22 22 22 20 22
39 37 37 36 36 35 34 30 28 26 25 23 23 22 22 22 22 22 23 23 22 21 21 21 22 24 25 24 23 22 22 23 23 23 22 22 21 21 19 18 18 18 17 18
38 36 36 34 32 30 28 27 26 24 23 22 22 22 21 21 21 20 20 20 20 20 20 20 20 22 22 21 21 21 20 19 20 19 19 17 15 15 15 15 16 15 14 14
35 34 34 31 29 27 25 25 24 23 22 22 21 21 20 18 17 18 18 18 17 16 17 19 18 15 15 15 16 16 16 16 16 16 14 12 13 16 12 11 13 12 12 13
31 30 29 27 26 25 24 23 23 22 22 21 20 20 19 19 19 18 18 17 16 14 16 11 12 11 14 16 15 15 14 13 14 13 13 12 11 11 11 11 10 10 9 8
27 26 26 25 25 24 23 23 23 22 22 21 20 18 17 17 17 17 16 15 16 14 10 9 10 14 15 14 13 13 11 10 11 10 9 9 8 8 8 8 8 8 7 6
24 24 24 23 22 23 22 22 21 20 21 20 18 17 17 17 18 17 14 12 12 11 8 7 9 13 15 13 12 10 9 8 8 8 6 5 5 5 5 4 4 5 5 4
22 22 21 21 21 21 22 22 21 20 19 19 18 17 16 15 16 16 15 13 12 11 9 10 11 11 11 10 8 8 7 6 6 5 5 4 3 3 3 3 3 3 3 3
22 21 21 20 20 20 21 21 20 19 18 19 18 18 17 16 15 12 11 12 9 7 9 9 7 4 5 6 6 5 5 5 4 3 3 2 2 1 1 1 1 2 1 0
21 21 21 22 21 20 18 19 19 19 18 18 17 15 14 13 13 11 9 7 7 8 8 6 4 4 4 3 3 3 3 3 2 1 1 -0 -1 -1 -2 -2 -2 -2 -2 -3
22 22 21 20 18 18 18 18 17 16 16 15 15 14 13 12 11 12 12 11 11 9 7 5 4 3 3 2 1 1 0 0 -0 -2 -2 -2 -4 -4 -4 -5 -5 -5 -5 -6
21 20 20 20 19 18 17 15 14 14 13 13 13 13 13 12 11 10 9 8 7 6 4 2 2 1 -2 -1 -0 -1 -2 -3 -5 -4 -4 -5 -4 -5 -5 -6 -7 -8 -8 -8
18 18 16 15 15 16 15 14 12 11 11 10 9 11 10 9 7 5 4 3 2 2 1 0 -0 -1 -3 -1 -1 -1 -2 -4 -4 -3 -5 -5 -6 -7 -8 -9 -9 -9 -9 -9

GFSNGP_sfc_30mbdewp_087.txt.gz
Dewpoint
28 21 20 24 24 24 23 25 23 24 26 26 26 26 26 28 28 27 26 27 34 40 43 45 46 48 50 52 52 52 52 52 52 53 56 56 57 56 56 56 56 53 52 51
28 25 20 18 21 25 27 27 24 24 24 28 28 28 28 26 26 26 25 27 29 35 38 41 45 46 48 50 52 53 53 53 54 54 56 56 55 55 54 52 52 51 51 50
27 26 26 24 24 23 23 27 24 22 25 26 26 26 27 25 26 26 27 28 28 29 34 39 46 49 50 51 53 53 53 52 52 52 52 51 51 51 50 50 50 49 48 48
30 25 22 26 27 28 27 26 28 26 25 24 23 24 25 23 23 26 28 29 37 44 47 49 51 52 52 52 52 52 51 50 50 50 50 49 49 49 48 47 47 46 46 46
28 26 26 28 29 28 27 27 28 27 24 24 22 26 24 29 28 25 31 36 46 49 49 49 50 50 50 50 50 50 49 49 49 48 47 47 46 45 45 45 45 44 44 42
30 27 23 27 28 31 33 28 28 26 28 24 26 21 22 31 35 37 44 48 48 49 48 48 49 50 49 49 49 48 48 47 46 46 46 45 44 44 45 44 42 40 37 36
30 29 29 32 33 35 31 29 31 27 27 26 25 25 28 38 41 46 49 48 49 48 48 47 47 48 47 47 46 46 45 45 44 44 44 43 43 41 38 36 34 32 30 30
31 28 24 30 35 31 31 35 34 32 29 28 27 31 35 41 45 48 48 48 48 47 46 46 46 46 45 45 44 44 43 43 42 40 40 39 37 35 33 32 31 29 28 27
31 26 29 31 34 35 38 36 36 36 35 34 32 36 41 43 47 48 48 48 47 46 45 45 45 45 44 43 41 38 33 31 31 31 31 34 34 33 31 31 29 28 27 26
31 30 30 30 34 40 40 35 35 36 39 38 36 40 41 44 47 47 48 47 45 41 38 37 37 37 37 33 29 29 29 28 28 28 27 27 28 29 29 30 30 29 28 25
31 30 30 29 32 35 36 36 35 36 37 38 38 40 41 44 44 43 38 33 32 30 29 29 29 28 28 27 27 26 25 25 25 23 23 25 26 27 27 29 30 29 28 27
23 26 28 29 30 35 36 35 37 36 36 39 39 39 41 40 36 30 28 27 26 25 25 25 25 25 24 25 25 25 26 26 26 27 28 27 26 25 28 28 28 27 25 24
29 31 33 35 38 39 40 40 41 40 39 40 40 40 36 27 25 24 23 24 25 25 26 26 26 26 27 27 27 28 28 29 28 28 28 27 27 26 24 26 27 27 26 26
33 35 36 38 37 38 37 35 34 33 35 34 31 27 25 23 22 22 23 24 25 25 26 26 27 27 28 28 27 26 25 25 25 25 24 24 24 24 24 23 22 23 26 26
32 33 36 39 37 36 33 30 28 27 26 24 25 24 23 22 22 23 24 24 24 24 24 23 23 23 25 25 24 24 24 23 23 23 23 23 23 22 21 20 20 19 21 19
37 38 38 37 36 32 30 28 25 24 24 24 24 23 22 22 21 21 21 21 20 19 20 20 20 22 23 22 21 21 22 22 22 21 19 18 17 16 16 16 17 16 15 14
37 36 35 33 30 28 26 25 24 23 23 22 22 21 20 20 19 18 18 19 19 18 19 19 19 20 18 18 18 18 17 17 16 14 13 15 16 14 13 13 13 13 13 13
33 35 34 30 27 25 24 23 23 22 21 21 21 20 19 18 16 16 16 17 16 16 17 19 18 15 15 14 14 15 15 15 14 14 13 12 12 11 10 9 9 9 10 10
28 28 27 25 24 23 23 22 22 22 21 21 19 18 18 17 17 17 17 15 14 12 15 17 16 15 14 14 12 12 12 11 11 10 9 8 7 8 7 7 7 7 7 6
26 26 25 25 24 23 22 22 22 21 20 19 18 17 16 16 16 15 13 12 12 12 14 14 14 12 11 11 10 10 9 8 7 6 5 4 3 3 3 4 4 4 3 4
24 23 23 22 22 22 22 21 20 19 19 18 17 15 15 16 15 14 11 9 9 11 12 13 12 10 9 9 8 7 6 5 4 3 2 1 0 0 0 0 0 1 0 0
22 21 21 21 20 20 21 20 19 18 17 16 16 16 14 13 12 12 10 8 10 11 10 7 7 7 7 6 5 4 3 2 1 1 0 -0 -1 -1 -2 -2 -2 -2 -2 -2
21 21 21 20 19 19 19 19 19 18 17 17 17 16 15 14 11 8 6 8 8 6 5 5 4 3 3 2 1 1 1 0 -1 -1 -2 -3 -3 -4 -4 -5 -5 -4 -5 -5
20 20 20 20 20 18 16 17 17 16 16 15 15 14 11 9 9 9 8 8 6 5 5 3 2 1 0 -0 -1 -1 -2 -3 -4 -4 -4 -5 -6 -6 -7 -7 -7 -8 -8 -9
21 20 20 18 17 16 16 16 16 15 14 13 12 12 11 10 8 9 9 8 6 3 2 1 -1 -1 -2 -2 -2 -3 -5 -6 -5 -6 -7 -6 -7 -7 -8 -9 -10 -11 -11 -11
20 19 19 19 18 17 16 15 13 12 11 10 10 10 9 9 8 7 5 4 2 1 -0 -4 -4 -2 -3 -3 -5 -6 -6 -5 -5 -6 -7 -7 -8 -8 -10 -11 -12 -12 -13 -13
17 17 16 15 15 15 13 12 11 10 10 8 7 7 6 5 4 2 0 -1 -2 -2 -3 -5 -5 -3 -3 -3 -3 -4 -4 -6 -7 -7 -9 -10 -11 -12 -13 -13 -14 -14 -13 -13

GFSNGP_sfc_30mbdewp_090.txt.gz
Dewpoint
30 32 32 34 27 20 19 22 22 22 24 26 26 27 27 28 28 27 26 27 36 42 44 47 49 49 50 51 52 50 49 48 48 50 52 52 54 55 56 56 56 56 55 55
27 30 32 31 26 23 25 24 25 26 24 28 29 29 28 28 28 27 28 27 27 34 42 45 47 48 50 50 51 52 51 50 50 51 52 52 54 54 56 56 55 55 53 52
25 30 31 27 23 21 21 27 26 24 24 26 26 27 27 28 28 27 27 27 27 28 33 40 44 47 48 49 51 52 52 52 52 52 52 54 54 55 55 54 53 52 52 51
28 29 23 27 26 24 23 24 25 26 26 27 27 27 27 28 28 28 27 27 28 32 41 48 50 50 51 51 52 52 52 51 51 52 52 52 52 52 51 50 49 49 48 47
24 27 29 30 29 26 25 24 27 27 28 27 28 25 23 27 26 26 27 33 44 48 49 49 49 50 50 50 50 50 49 50 50 51 50 49 48 47 46 46 45 43 42 41
29 25 19 28 33 34 32 27 30 30 29 28 26 24 25 28 34 39 44 47 48 48 48 48 49 50 50 49 48 48 47 47 47 47 46 45 45 44 44 42 39 37 35 35
27 27 29 33 35 37 29 28 32 35 30 29 26 28 29 39 45 48 48 47 47 47 46 47 48 48 47 46 45 45 45 44 44 44 43 43 40 39 37 34 32 31 29 29
30 28 25 33 36 36 34 37 37 35 35 34 30 31 35 44 47 47 47 47 46 46 45 46 47 46 44 43 43 41 38 37 37 38 38 36 35 34 33 31 30 28 28 27
31 29 30 31 28 33 39 37 37 36 37 38 35 35 40 47 47 47 46 46 46 45 43 43 44 44 41 37 35 34 34 33 32 32 32 33 32 32 31 30 29 28 26 25
31 28 30 30 33 34 36 37 39 38 38 39 38 41 46 47 46 45 44 41 39 39 37 35 35 34 33 32 32 31 30 29 28 28 28 29 29 30 30 30 29 28 26 25
30 31 31 30 28 32 35 38 37 39 39 40 41 43 45 43 37 34 32 30 30 29 28 26 26 27 27 28 27 26 24 24 26 27 27 27 27 28 27 28 30 28 27 26
25 29 31 30 33 35 36 38 39 38 38 41 43 41 35 30 29 29 28 28 27 26 26 26 26 26 27 27 27 27 28 29 29 29 28 26 26 26 29 28 28 27 27 26
27 33 32 32 38 39 41 37 35 34 37 42 39 32 29 27 27 27 27 27 26 27 27 27 27 27 28 28 28 28 27 27 26 26 26 25 25 25 23 25 26 26 26 25
31 31 27 32 36 36 36 34 33 32 30 28 27 26 26 26 26 26 25 25 25 25 25 25 25 25 26 25 25 24 23 23 23 23 22 22 22 22 21 21 20 21 21 22
29 31 31 36 35 32 32 31 31 29 28 27 26 26 25 25 24 24 24 24 23 22 22 21 21 22 24 23 23 22 22 21 21 19 18 18 18 17 18 17 16 16 15 15
37 38 38 36 33 31 30 29 27 26 25 24 23 22 22 21 20 20 21 21 19 18 19 19 19 21 22 20 19 18 16 15 14 15 15 14 14 13 13 13 13 11 10 10
36 37 35 33 29 27 26 25 24 23 23 22 21 20 19 18 18 17 17 18 18 18 18 18 18 18 17 16 15 15 14 13 13 13 13 12 11 10 9 9 9 9 8 8
33 32 34 31 26 24 24 24 23 22 21 21 20 19 17 15 14 15 15 16 16 16 16 16 14 13 13 13 13 12 12 12 11 9 9 8 8 7 6 6 6 6 6 6
27 27 26 25 24 23 22 22 21 21 20 19 18 16 16 16 15 15 15 14 13 12 14 13 13 11 11 12 10 10 8 7 6 6 5 3 2 3 2 3 2 1 1 1
25 25 24 23 23 22 21 21 20 19 19 17 16 14 13 13 13 12 12 12 13 14 12 10 9 8 8 8 7 6 5 5 4 2 1 -0 -1 -2 -1 -0 -1 -2 -2 -2
24 23 22 21 21 21 20 19 18 17 17 16 14 13 12 13 13 12 9 9 11 11 9 8 8 7 7 6 5 4 2 1 -0 -1 -2 -3 -3 -3 -4 -5 -5 -5 -5 -5
22 21 20 19 19 18 19 19 18 17 16 14 13 12 11 10 10 10 10 8 7 6 6 6 5 4 4 3 2 1 0 -1 -2 -3 -4 -4 -5 -6 -7 -7 -8 -8 -8 -8
21 20 19 18 17 17 18 18 17 16 15 14 13 13 11 10 8 6 4 5 5 4 4 3 2 1 -0 -1 -2 -3 -4 -4 -4 -5 -7 -7 -8 -9 -9 -9 -9 -10 -11 -12
19 19 18 18 18 15 14 15 15 14 14 13 12 11 9 7 7 7 6 4 3 2 2 0 -0 -1 -2 -4 -5 -7 -7 -7 -7 -8 -8 -8 -9 -9 -9 -11 -11 -13 -13 -13
20 19 19 17 15 14 14 14 13 13 12 11 10 9 8 7 5 6 5 4 3 -0 -2 -2 -2 -3 -5 -7 -8 -7 -6 -7 -8 -8 -9 -9 -10 -11 -13 -14 -14 -14 -14 -14
18 17 17 17 16 15 14 13 10 10 8 7 7 7 7 7 5 3 2 1 -1 -3 -4 -4 -5 -6 -7 -7 -7 -7 -7 -7 -8 -9 -10 -11 -12 -13 -14 -14 -15 -15 -16 -16
16 16 14 13 14 14 13 11 9 8 7 6 5 5 4 2 1 -1 -2 -3 -5 -6 -6 -6 -5 -4 -5 -5 -6 -8 -8 -9 -9 -10 -12 -13 -14 -15 -15 -16 -16 -17 -16 -16

GFSNGP_sfc_30mbdewp_093.txt.gz
Dewpoint
25 23 22 25 26 25 28 31 23 20 22 24 24 25 26 29 30 29 29 28 37 42 45 48 49 50 51 51 52 51 51 51 50 50 51 51 52 52 53 54 55 55 56 56
26 27 27 23 25 28 30 32 29 23 21 27 28 29 29 29 30 29 28 28 29 35 43 46 48 49 50 51 51 51 51 50 50 50 51 52 53 53 54 55 56 56 56 56
24 27 28 25 26 30 31 30 26 23 25 27 26 27 29 29 30 30 29 30 29 29 36 44 47 49 50 51 52 52 51 50 50 50 50 51 52 53 53 54 55 56 55 55
24 28 20 23 29 32 31 28 26 26 26 27 27 27 29 30 29 29 30 30 30 31 38 46 49 49 50 51 52 52 52 52 52 52 52 53 53 54 53 51 50 48 46 45
20 22 24 16 31 31 33 32 31 24 25 27 28 28 27 28 27 28 31 31 39 44 48 49 50 51 51 51 51 51 51 51 52 52 51 49 48 47 46 45 42 40 39 37
25 23 14 22 30 37 35 28 37 34 34 31 30 26 25 30 38 45 47 48 48 49 49 50 50 50 50 49 48 47 47 47 47 47 46 45 44 42 40 37 35 34 32 32
22 23 25 30 35 38 25 32 39 39 37 36 31 30 35 46 47 46 46 46 48 48 48 49 49 48 46 45 44 44 44 44 44 43 41 40 39 38 35 33 31 30 29 29
24 24 20 34 36 29 36 39 37 40 38 39 34 37 46 47 46 46 45 46 47 46 46 46 45 44 43 40 40 39 39 38 37 36 36 36 35 33 32 30 29 28 27 26
31 26 36 36 32 33 39 35 37 41 41 40 40 43 46 46 45 44 44 43 43 42 41 40 41 40 37 36 35 34 33 32 31 31 31 32 32 31 30 29 28 27 26 24
28 28 31 32 33 35 35 36 38 41 42 43 45 46 46 44 41 39 39 38 35 32 31 30 31 33 32 32 31 30 30 30 29 29 29 29 29 29 30 30 28 27 26 24
27 26 31 31 32 32 36 38 39 40 43 44 45 40 38 35 34 32 31 31 30 29 28 28 28 28 28 29 30 29 29 28 28 27 27 27 27 27 26 28 28 27 27 26
23 24 27 30 32 34 40 38 37 39 42 44 41 36 32 30 30 29 29 29 28 28 28 28 28 28 29 29 30 30 29 28 28 27 26 25 25 25 26 25 25 25 25 25
25 26 32 33 32 38 40 36 34 35 36 36 35 33 31 29 29 28 28 28 27 27 27 27 26 26 27 27 27 27 26 25 25 25 24 24 24 23 21 22 21 23 23 22
31 32 31 28 27 36 36 34 32 30 30 30 30 30 29 28 28 27 26 26 25 25 24 24 24 24 25 24 23 23 23 23 22 21 21 21 20 20 20 19 17 16 16 17
31 31 31 31 36 33 33 33 32 31 29 29 28 28 27 25 24 24 24 24 24 23 22 22 21 21 23 22 22 21 19 18 18 17 17 16 16 15 14 13 12 11 10 10
35 37 38 37 35 32 31 30 28 27 26 25 24 23 23 22 21 20 21 21 19 18 19 19 19 20 19 17 15 15 15 15 13 12 12 11 11 11 10 9 8 8 7 6
34 34 36 35 31 28 29 28 27 25 23 22 21 20 18 18 17 17 17 18 17 17 18 17 17 16 15 13 12 11 10 11 11 9 8 8 8 7 7 7 6 5 6 6
32 32 32 35 29 26 24 24 24 23 21 20 19 18 17 16 15 15 15 16 15 14 14 13 12 11 10 10 10 10 9 8 7 6 6 6 5 5 4 4 3 2 3 3
27 27 27 26 25 25 23 23 22 20 19 18 17 16 15 15 15 15 15 14 12 11 10 10 10 8 8 8 6 7 6 5 4 3 2 2 2 2 2 1 1 1 1 0
25 25 24 24 24 23 22 21 20 18 18 16 15 14 13 14 14 14 13 12 10 8 7 6 5 4 4 5 4 4 4 2 1 1 1 0 -0 -0 -1 -2 -2 -2 -2 -2
24 24 23 21 21 20 20 19 17 15 16 14 13 12 12 13 13 12 9 8 8 7 6 5 4 3 2 2 2 3 2 1 -0 -1 -1 -1 -2 -3 -3 -3 -4 -4 -5 -5
21 20 19 19 18 18 18 18 16 15 13 13 12 12 10 9 9 9 8 6 5 5 3 3 3 3 2 1 1 1 -1 -1 -2 -2 -2 -3 -4 -5 -5 -5 -6 -5 -6 -6
19 18 18 17 16 16 16 15 14 13 12 12 12 12 11 9 6 4 3 3 3 3 2 2 1 -0 -0 -0 -1 -2 -2 -3 -3 -3 -4 -5 -5 -6 -6 -6 -6 -7 -8 -8
18 17 17 17 17 15 13 14 13 13 12 11 11 11 8 6 6 5 4 3 2 2 1 1 -0 -2 -2 -3 -4 -4 -3 -3 -4 -4 -5 -6 -6 -6 -7 -8 -9 -9 -9 -9
18 17 17 15 14 13 13 13 12 11 10 10 9 7 6 4 4 4 3 2 1 -0 -0 -1 -4 -5 -4 -3 -3 -4 -4 -4 -4 -4 -5 -6 -7 -8 -9 -9 -10 -9 -9 -9
17 16 16 16 15 14 13 11 9 9 7 6 6 6 6 4 3 2 0 -0 -1 -1 -2 -3 -4 -3 -3 -3 -3 -4 -3 -4 -5 -6 -7 -8 -9 -9 -10 -10 -10 -10 -10 -10
15 15 14 13 14 13 12 10 8 7 6 5 4 4 3 1 0 -1 -2 -3 -2 -2 -2 -2 -1 -2 -2 -2 -3 -4 -5 -5 -7 -8 -8 -9 -10 -10 -11 -11 -11 -11 -11 -11

GFSNGP_sfc_30mbdewp_096.txt.gz
Dewpoint
18 16 14 15 15 17 23 24 24 25 24 21 22 21 22 25 27 29 30 29 35 40 43 44 46 48 49 49 50 50 51 51 50 51 51 52 52 52 52 52 52 51 51 51
22 22 21 17 15 15 17 21 22 23 24 28 26 23 23 23 24 24 29 29 29 33 40 44 46 47 49 50 51 51 50 50 51 51 51 51 51 51 51 52 52 52 52 53
18 22 25 22 21 18 15 17 25 26 26 26 24 22 23 27 29 27 29 29 31 31 34 41 46 48 48 50 52 52 52 51 51 51 51 51 51 52 52 53 54 54 55 54
20 22 19 17 24 23 20 26 28 30 30 27 26 25 25 24 27 29 29 30 30 33 35 39 44 48 49 50 52 52 51 51 51 51 51 51 51 52 53 51 48 45 41 39
17 12 13 16 18 28 28 24 30 36 31 26 26 25 25 27 28 30 36 33 34 35 41 46 46 48 49 50 51 52 52 52 53 53 53 50 48 46 44 40 37 35 35 34
17 14 9 8 27 34 30 21 37 37 38 37 37 27 24 28 41 44 45 45 45 46 48 49 50 51 51 50 49 47 47 47 46 46 45 42 40 37 36 34 33 32 31 32
21 20 15 17 26 35 24 26 35 38 37 39 39 36 37 46 46 46 47 48 48 49 49 49 50 48 46 45 43 43 41 40 39 39 38 37 35 34 32 31 29 29 28 29
24 22 18 28 36 33 37 37 36 38 38 39 41 40 46 46 46 46 46 46 47 46 46 47 46 43 41 39 38 37 36 35 35 35 34 33 32 31 30 29 28 28 27 26
24 23 24 28 36 38 38 36 32 39 40 41 43 44 45 45 44 43 42 39 37 36 38 39 39 38 36 35 35 34 34 33 32 31 31 32 31 30 29 29 28 27 25 24
26 22 30 34 37 37 35 32 39 39 41 44 46 46 45 44 42 40 37 36 34 34 33 33 34 33 34 34 34 33 32 31 31 30 29 28 28 29 29 28 27 26 25 25
21 22 23 24 29 29 28 36 39 40 42 46 45 44 41 39 38 36 34 33 32 32 31 31 32 33 34 34 33 31 30 29 28 28 27 26 26 26 26 26 28 28 27 26
20 22 23 23 24 28 29 34 37 40 44 44 41 39 36 33 33 32 32 31 30 30 30 30 31 32 32 33 32 30 29 29 29 28 27 25 23 23 25 24 23 23 24 22
25 26 27 28 29 31 34 35 37 38 41 38 37 35 32 30 30 29 29 29 28 28 28 28 29 28 29 30 29 29 28 27 27 27 27 25 23 21 19 19 18 19 18 17
24 25 26 28 27 32 35 35 34 34 35 34 33 31 30 30 29 27 26 26 27 26 25 26 25 25 27 28 27 26 25 25 24 24 23 23 22 22 20 19 17 15 12 12
26 28 29 29 29 32 35 37 34 32 32 31 30 28 27 25 23 23 24 24 23 22 22 22 21 22 25 25 24 23 22 21 21 20 19 18 17 16 15 14 13 11 10 9
28 31 31 30 36 35 34 35 33 30 29 28 26 25 23 22 21 22 23 23 20 18 20 20 20 20 20 19 17 16 15 15 15 14 14 13 12 11 10 9 8 7 6 5
31 30 28 35 35 33 33 32 31 27 25 23 22 21 19 18 17 16 17 18 19 19 20 19 17 15 14 13 12 11 11 10 9 8 8 9 9 8 7 7 6 5 5 4
33 34 34 35 36 31 30 30 28 25 23 21 21 20 18 16 15 15 15 16 16 16 16 14 11 10 10 9 8 8 8 7 7 7 7 7 6 5 5 4 3 3 3 3
30 30 30 30 31 29 27 26 24 22 21 20 18 17 16 15 15 15 16 15 14 12 12 9 8 6 6 7 6 7 6 5 4 4 4 4 4 4 4 4 3 3 2 2
27 27 27 27 27 26 24 22 21 20 19 17 16 16 15 15 16 15 15 12 9 5 3 3 2 2 3 4 4 5 5 4 3 4 4 4 4 4 2 -0 1 2 2 2
25 25 25 24 23 22 21 20 18 17 17 16 14 13 13 14 14 14 12 7 6 5 3 2 -0 -1 -0 1 2 5 5 4 4 4 3 3 3 2 2 2 2 1 1 1
21 21 20 20 19 18 19 19 17 16 15 14 14 13 11 11 11 11 9 5 4 3 2 1 1 1 1 2 3 4 3 3 3 3 2 2 2 1 1 1 0 -0 -0 -0
19 18 18 16 15 14 15 15 15 14 13 13 13 13 12 12 10 5 3 3 3 2 1 2 2 2 3 4 3 3 2 1 1 1 1 1 1 0 -0 -1 -1 -1 -2 -2
18 17 16 17 17 15 13 14 14 13 12 12 12 12 10 7 6 4 3 3 3 2 2 1 1 1 1 2 2 2 2 1 1 1 -0 -1 -0 -1 -2 -2 -3 -2 -3 -4
18 17 16 15 13 13 13 12 12 11 11 10 10 9 7 6 5 4 3 2 1 0 -1 -1 -1 0 2 2 1 1 1 1 0 -0 -0 -1 -2 -2 -2 -2 -3 -3 -4 -4
17 16 16 15 14 14 13 12 10 10 9 7 7 7 6 4 3 2 2 1 0 -0 0 1 1 1 1 0 0 0 -0 -1 -1 -3 -3 -2 -3 -3 -3 -4 -4 -4 -4 -4
15 15 14 13 14 13 13 11 10 9 8 7 6 5 4 3 1 1 1 1 1 1 1 1 1 0 1 1 -0 -1 -1 -2 -4 -4 -3 -3 -3 -3 -4 -4 -4 -5 -5 -5

GFSNGP_sfc_30mbdewp_099.txt.gz
Dewpoint
11 11 12 15 15 15 17 20 21 22 20 21 22 21 22 23 23 24 27 29 34 38 41 44 46 48 49 50 51 50 50 50 50 51 52 52 52 52 53 53 52 52 52 51
13 13 12 12 12 11 10 12 16 18 19 21 22 23 25 25 23 23 22 25 28 33 38 41 44 46 48 49 51 51 51 51 50 51 51 52 52 53 52 52 52 52 51 51
18 13 11 13 12 9 6 4 7 12 17 19 24 23 23 24 24 22 25 25 27 29 33 39 43 45 46 48 50 51 50 51 51 51 51 51 52 52 52 52 52 47 45 42
18 19 15 14 15 18 19 17 10 6 6 20 24 27 24 24 23 23 26 28 29 30 33 35 42 45 47 49 50 51 51 50 50 51 51 51 51 50 46 43 40 38 36 35
17 12 11 10 13 17 19 22 23 24 28 35 36 31 27 24 23 24 30 35 33 36 34 37 40 45 47 49 51 51 51 51 51 52 52 48 44 40 38 35 34 33 34 33
20 15 10 10 25 32 31 27 35 35 36 38 38 35 28 31 29 39 41 41 41 43 45 45 45 47 48 50 51 49 48 46 46 44 41 38 36 34 33 32 31 31 31 31
21 20 18 16 16 28 25 29 37 35 34 36 38 41 42 45 44 45 45 46 48 47 49 51 51 49 46 44 42 41 40 39 37 37 35 34 33 32 31 30 29 28 28 28
21 23 20 21 24 26 36 38 37 33 34 37 40 42 46 46 45 46 46 47 47 48 47 46 45 43 39 38 38 37 36 35 34 34 33 32 31 31 30 29 28 27 26 26
25 21 22 23 32 36 39 38 38 35 37 40 43 43 45 44 44 42 40 40 40 40 39 39 39 37 35 36 35 34 33 32 32 32 32 31 30 29 29 28 27 27 26 26
21 22 23 25 32 30 37 36 37 35 36 43 45 46 44 43 41 39 38 37 36 35 35 35 35 35 35 35 34 32 31 30 30 29 28 28 28 29 29 28 27 27 27 25
22 22 23 22 26 33 35 30 28 35 41 44 47 46 44 41 38 36 35 34 34 34 34 35 35 34 34 34 32 31 30 29 28 27 26 26 26 26 25 27 27 26 25 24
22 24 25 24 24 26 27 28 33 36 44 44 43 42 38 35 35 34 33 34 32 33 33 34 33 33 33 33 32 30 30 29 27 26 24 22 22 22 22 21 20 21 21 19
23 23 23 24 25 28 27 32 35 38 40 38 35 35 33 31 31 30 30 31 31 31 31 32 31 31 31 31 31 30 29 29 28 28 26 23 21 18 17 17 17 16 15 14
23 23 23 24 25 27 27 33 35 36 35 34 32 31 30 29 27 25 24 24 25 26 27 27 27 28 30 31 30 30 30 30 29 27 26 25 24 23 21 18 16 13 11 10
23 24 25 27 26 26 28 35 35 34 32 30 28 27 26 24 23 23 23 23 23 22 22 23 24 25 28 28 28 28 26 25 24 23 22 22 20 18 17 15 12 10 9 9
26 29 28 29 27 31 34 34 36 32 29 28 27 25 24 23 21 21 22 23 21 20 22 22 22 23 25 24 20 19 19 19 19 18 17 15 13 12 11 11 9 8 7 6
30 28 29 32 31 35 34 34 35 31 27 25 23 21 18 18 18 18 19 20 21 21 22 22 21 19 16 15 14 13 12 11 12 11 11 11 11 10 10 9 8 7 5 4
33 32 32 33 33 34 33 33 30 27 24 22 21 20 19 17 16 16 17 17 17 17 18 19 18 12 9 9 9 9 10 10 10 10 10 10 9 8 8 7 6 6 6 4
31 31 31 31 33 34 33 31 27 24 22 20 18 17 17 16 16 17 18 17 15 14 15 14 10 7 8 8 8 9 8 8 7 7 8 8 8 8 8 7 6 6 5 5
28 28 29 30 30 31 28 25 23 22 20 18 17 16 16 16 16 16 15 13 12 10 4 3 3 3 5 7 8 9 9 8 7 9 8 8 8 6 4 3 5 6 6 5
26 26 26 25 25 25 24 23 21 19 19 18 15 14 14 15 15 15 13 10 6 2 1 0 -0 1 3 6 8 10 9 9 8 8 7 7 6 6 6 6 5 5 4 4
23 22 22 21 20 20 21 20 18 17 16 15 15 15 13 12 12 12 13 9 7 4 3 3 4 5 5 7 8 8 7 7 7 7 7 6 6 5 5 4 4 4 3 3
20 19 18 16 16 16 16 16 16 15 14 14 14 14 13 13 13 9 7 7 5 5 4 5 6 6 7 8 8 7 6 6 5 5 5 5 5 4 4 2 3 3 2 1
19 17 16 16 16 15 13 15 15 14 14 14 14 14 12 10 9 7 6 6 5 5 5 5 5 5 7 7 7 6 6 5 5 4 4 3 4 3 2 2 1 2 1 0
19 18 17 15 13 13 13 13 13 13 12 12 12 12 10 7 7 6 5 4 2 2 3 3 4 5 6 6 6 5 5 5 5 4 4 3 3 2 2 1 1 -0 -1 -0
19 17 17 16 15 15 14 13 11 11 10 9 9 9 8 7 7 7 5 3 2 3 4 5 5 5 5 4 4 4 3 3 2 1 2 2 1 1 1 -0 -0 -0 -0 -1
17 16 15 14 14 15 14 13 12 11 11 9 7 7 6 6 5 5 5 4 4 4 5 5 4 4 4 4 3 3 3 1 -2 0 1 1 1 1 0 -0 -1 -1 -2 -2

GFSNGP_sfc_30mbdewp_105.txt.gz
Dewpoint
15 14 14 12 11 10 10 16 25 26 27 30 29 33 35 37 31 23 23 24 27 38 45 50 51 52 53 53 53 54 54 54 53 54 54 54 54 54 54 54 54 54 54 54
14 12 9 10 12 11 10 10 13 14 16 21 16 20 21 28 24 24 25 26 24 28 39 46 50 51 52 52 52 53 53 54 54 54 54 54 53 53 54 54 54 52 46 45
16 15 12 11 12 12 10 8 9 9 13 17 11 8 37 42 43 44 45 45 38 26 26 41 51 50 52 52 52 52 52 53 54 54 54 54 54 54 53 48 43 40 38 37
17 20 13 15 19 15 10 10 18 34 37 37 36 38 43 45 44 45 46 47 48 47 46 40 48 50 51 52 52 52 51 52 54 54 54 54 51 44 41 39 37 35 34 33
20 18 21 18 19 24 24 26 38 36 37 37 36 37 42 43 46 45 46 47 49 49 48 47 49 53 54 52 52 52 51 51 52 53 47 43 40 37 36 34 33 32 32 32
22 18 12 14 26 26 23 24 38 38 37 36 36 35 38 44 45 45 46 46 48 47 45 44 44 51 52 52 51 47 45 44 44 42 40 37 35 33 33 32 31 30 30 31
22 20 22 23 24 25 19 28 37 35 37 37 35 36 39 45 45 44 43 43 44 42 41 41 41 42 42 41 40 40 39 38 37 36 35 33 32 32 30 29 28 28 27 28
22 20 16 28 27 23 33 34 35 36 35 36 36 38 43 44 42 40 40 40 40 39 39 39 39 40 39 37 37 37 37 36 35 34 33 32 31 30 29 28 27 26 26 26
22 20 33 36 34 38 34 33 33 32 32 35 39 44 45 41 39 38 37 37 37 37 37 37 37 37 36 36 37 36 35 34 33 32 31 30 29 28 28 27 27 26 25 24
29 31 34 34 35 33 30 29 30 30 33 41 42 45 42 38 36 35 35 35 36 36 35 34 34 34 34 34 33 32 31 30 30 30 29 30 30 29 28 26 25 23 21 20
33 35 36 37 35 31 32 30 29 38 40 41 41 38 37 36 34 34 35 36 36 35 34 33 33 32 32 32 30 28 27 26 25 25 24 23 24 23 22 24 24 21 21 20
31 35 36 34 30 32 32 33 38 41 36 35 36 35 33 31 31 30 30 30 32 34 33 33 33 32 31 30 29 27 25 24 23 22 21 20 19 20 23 22 22 21 21 20
26 30 31 28 31 34 36 37 36 35 34 32 31 31 29 27 26 26 26 26 27 28 29 30 31 31 30 29 28 26 24 23 22 21 20 19 18 17 15 19 20 19 19 18
26 25 29 31 32 34 36 34 33 31 31 30 28 26 25 24 24 24 24 25 26 26 26 27 28 29 30 29 27 26 25 23 22 21 19 18 17 16 16 14 14 16 17 16
23 31 34 33 34 37 36 34 31 30 28 26 25 24 23 22 22 22 24 25 25 24 24 25 24 25 28 28 27 27 26 26 25 25 23 21 19 17 15 15 15 15 16 14
31 33 33 32 33 35 36 33 30 28 26 24 22 22 22 22 22 22 23 24 21 21 22 22 22 23 25 25 24 24 23 23 22 21 19 17 16 13 12 11 10 10 10 12
31 31 31 32 32 33 35 34 30 27 24 22 21 21 20 19 18 18 19 20 20 20 21 21 21 23 23 23 22 21 21 20 17 17 16 15 13 10 9 9 8 8 10 10
29 30 31 31 33 33 32 29 27 24 22 21 20 19 19 17 16 17 17 18 18 18 19 20 21 21 21 21 20 18 16 16 16 16 15 15 14 12 9 8 7 8 9 8
27 28 29 28 29 28 26 24 23 22 21 20 18 17 17 16 16 16 16 16 15 15 17 20 20 19 17 17 15 14 13 13 13 13 13 12 11 11 10 10 9 8 8 7
23 24 25 25 26 26 24 23 21 20 19 18 18 16 15 15 15 14 14 13 15 16 18 16 15 15 15 15 14 13 12 11 10 9 9 8 8 9 9 8 8 6 5 4
22 21 22 22 21 21 21 20 19 18 19 17 15 14 13 14 14 14 13 11 15 17 17 16 14 13 12 12 13 13 12 11 11 10 10 10 9 8 7 6 5 5 4 4
19 18 18 18 18 18 19 19 18 17 16 15 15 14 12 12 12 11 13 11 13 15 15 15 15 14 13 13 13 13 12 12 11 11 9 8 7 6 5 5 4 2 1 3
17 16 15 15 15 15 16 16 16 15 14 13 13 12 12 12 12 9 7 12 13 13 13 13 12 12 12 12 11 10 10 9 9 8 7 6 3 3 3 3 2 -0 -1 2
16 16 17 17 16 14 13 13 13 13 13 12 12 12 10 8 8 10 11 12 12 12 13 13 12 11 11 10 9 8 8 7 7 7 6 4 3 1 2 1 -0 -1 0 1
18 16 15 14 12 12 12 12 12 11 11 11 11 11 10 10 6 9 9 11 11 11 11 12 11 10 8 7 7 6 7 7 6 5 5 3 2 2 0 -1 -2 1 0 -1
18 17 16 14 14 14 14 12 10 10 9 7 8 8 9 9 9 8 9 10 10 10 10 10 9 8 7 6 7 6 4 4 4 3 3 3 1 -0 -0 1 -0 -1 -2 -2
17 17 16 15 14 13 12 11 9 8 9 8 7 9 9 9 9 8 8 9 9 8 8 9 8 8 7 6 3 1 1 2 2 2 2 2 1 -1 -1 -2 -2 -2 -1 -3

GFSNGP_sfc_30mbdewp_108.txt.gz
Dewpoint
14 14 13 12 11 10 9 15 21 19 19 17 22 29 37 39 41 37 37 38 41 47 50 53 53 53 53 53 53 53 53 53 54 54 54 52 54 54 54 55 55 55 55 54
15 16 16 15 15 13 11 10 10 12 15 17 29 27 33 33 38 42 46 47 48 44 49 52 53 54 54 53 53 53 53 53 53 54 54 53 52 53 52 54 55 52 52 46
14 18 18 15 14 14 12 12 11 9 15 37 37 33 40 43 44 45 45 45 47 47 46 47 52 54 54 54 54 54 54 54 53 54 54 53 53 54 52 47 43 41 39 37
16 18 10 10 17 20 15 14 19 28 36 37 36 43 43 45 44 45 44 45 47 46 45 44 45 53 54 54 54 54 54 54 54 54 53 54 51 45 42 39 38 36 34 33
14 14 15 14 18 25 25 21 37 36 37 37 37 41 39 45 45 45 44 44 45 44 43 43 44 49 54 54 54 54 53 54 54 54 50 46 42 38 36 35 34 33 32 32
21 14 14 19 25 26 29 25 37 37 37 36 36 32 34 44 45 43 42 42 42 41 41 41 43 45 53 53 53 50 48 48 50 46 43 39 36 35 34 33 32 32 31 31
18 16 19 21 20 23 25 27 36 36 36 36 34 35 38 44 42 40 39 39 39 39 39 39 41 42 41 41 41 42 42 41 41 39 37 35 33 33 31 30 30 29 29 30
20 18 15 31 32 24 32 34 35 35 34 33 38 43 44 40 39 38 37 37 37 37 37 37 40 41 39 38 39 39 38 36 35 35 34 33 31 30 30 29 28 27 27 27
20 19 28 36 34 38 37 32 32 31 31 37 42 43 40 37 36 35 36 36 36 36 35 35 36 38 37 38 37 36 35 34 33 32 31 31 30 29 28 27 26 25 24 22
28 33 35 37 37 36 35 30 28 31 39 42 41 41 38 35 34 35 35 36 35 34 33 33 33 33 34 34 34 33 32 31 31 30 30 29 29 28 27 25 23 22 21 20
31 33 35 35 37 37 36 32 32 39 40 40 39 36 35 33 32 32 32 35 34 33 32 31 31 31 31 30 29 28 28 27 26 25 24 23 24 23 23 24 22 20 20 20
27 35 34 32 35 36 33 36 39 37 34 33 34 32 30 28 28 28 29 30 31 32 32 31 30 29 29 29 27 25 24 23 22 22 21 20 20 21 24 24 24 23 22 21
26 28 30 31 33 38 37 35 34 33 32 31 29 28 27 26 26 26 26 27 28 29 30 29 28 27 26 26 25 23 22 21 21 20 19 19 18 17 17 22 23 23 22 21
30 29 32 35 36 35 33 31 31 29 28 27 26 25 25 24 23 23 24 26 27 27 28 28 27 26 26 25 23 22 21 20 19 18 18 18 17 17 17 16 15 18 21 21
33 35 34 34 37 35 34 32 29 27 26 25 24 24 23 22 22 22 23 24 24 23 24 25 25 26 27 26 24 22 21 20 20 19 18 17 17 17 17 16 15 14 14 15
32 32 32 33 33 36 34 31 29 26 24 23 23 23 22 21 20 21 21 22 20 19 21 21 22 24 25 24 23 23 22 22 21 19 18 17 16 14 14 13 13 12 10 8
29 29 30 30 32 33 31 31 28 25 23 22 22 20 19 19 18 18 18 19 20 20 20 21 21 23 23 23 22 22 21 20 19 17 15 13 13 12 12 11 11 10 10 9
27 28 28 29 29 31 28 26 24 23 22 21 20 20 18 17 16 16 17 18 18 18 18 20 20 21 21 21 21 20 19 18 16 14 12 11 11 10 10 9 9 8 8 7
24 23 25 25 28 26 25 24 23 22 21 20 18 17 17 16 16 16 17 16 16 15 17 20 20 19 19 19 19 17 16 15 14 13 12 11 11 10 9 8 8 7 6 5
21 21 22 23 24 25 23 22 22 20 20 18 17 16 15 15 15 15 14 14 16 17 18 18 19 18 17 16 14 14 13 12 11 11 11 10 9 8 7 6 5 4 4 3
18 19 19 20 20 20 20 20 19 18 18 17 15 14 13 14 15 14 12 12 16 18 18 17 14 13 13 13 13 13 12 11 10 10 9 8 8 7 6 4 3 3 3 3
16 15 15 16 17 17 18 18 17 16 15 15 14 13 12 11 11 11 13 12 15 16 16 16 15 15 14 13 13 12 11 10 10 9 7 6 5 4 4 3 3 3 1 -1
14 14 14 14 14 14 15 15 15 14 13 13 12 12 11 11 12 10 8 13 14 14 13 13 13 12 12 12 11 10 9 9 8 7 5 5 4 3 2 -0 0 0 -1 -2
15 15 14 14 13 11 10 11 11 11 11 11 11 11 10 9 9 12 13 13 14 13 13 13 12 11 11 10 9 9 8 7 6 4 3 2 2 2 1 -0 -0 -1 -1 -1
14 14 12 11 10 10 11 11 11 10 9 9 9 9 10 11 8 11 12 12 12 11 10 9 9 9 8 8 8 8 7 6 6 5 4 2 1 -1 -3 -1 -0 -1 -3 -4
16 15 13 12 13 13 12 10 8 8 8 6 7 8 9 10 10 11 11 10 10 10 9 8 7 7 7 7 6 6 6 5 4 3 2 1 -0 -0 -0 -1 -2 -3 -4 -4
16 16 14 13 12 12 11 10 8 7 8 7 6 8 9 9 9 9 9 8 8 9 9 9 8 7 6 4 4 4 4 3 3 3 1 -0 -1 -1 -2 -3 -3 -3 -4 -5

GFSNGP_sfc_30mbdewp_111.txt.gz
Dewpoint
14 15 14 12 14 14 12 12 10 6 13 16 17 22 25 36 39 41 44 47 47 47 52 54 54 54 54 53 53 53 54 53 52 54 54 55 55 55 55 54 54 54 54 53
16 17 16 16 18 17 16 15 13 11 9 11 19 27 29 36 39 41 43 46 46 46 46 47 50 54 54 53 53 53 54 54 53 53 53 54 54 54 55 55 54 54 52 50
9 17 16 11 10 14 13 13 13 10 10 19 34 36 37 38 40 44 45 45 46 45 45 45 45 47 54 54 54 53 53 53 54 54 53 52 53 53 53 50 47 45 43 42
13 14 5 9 15 15 17 18 23 15 19 37 37 42 43 44 44 44 44 44 44 43 43 43 43 46 50 55 54 54 53 53 53 54 53 53 52 48 45 42 40 38 36 35
12 10 7 8 7 20 28 28 33 21 36 37 37 42 40 44 45 44 42 42 42 41 41 42 42 45 52 55 55 54 54 54 53 53 52 48 44 40 38 37 35 34 33 33
19 13 4 11 24 26 28 24 37 35 36 37 36 36 35 43 42 40 39 39 39 39 39 40 42 45 49 53 54 54 54 54 54 50 46 42 39 37 35 34 32 32 31 31
17 13 13 17 18 28 19 27 33 36 36 35 34 36 40 41 39 38 37 37 38 38 37 38 41 43 43 43 42 42 44 46 46 44 41 38 36 35 34 32 31 30 30 30
21 16 12 29 30 26 31 34 36 36 33 33 41 43 41 38 37 36 36 36 36 36 35 36 38 39 40 39 40 39 38 37 37 36 35 34 33 32 31 30 29 28 27 27
20 17 28 36 36 37 39 36 32 32 30 38 42 40 38 36 35 35 36 36 35 34 34 33 35 36 35 37 38 35 34 33 32 32 32 32 31 30 29 28 27 26 26 25
29 32 34 36 37 39 39 37 33 37 42 41 40 39 36 35 34 33 34 35 33 33 32 31 31 32 33 34 34 33 31 31 30 29 28 28 28 29 27 25 24 24 23 22
31 32 34 35 34 34 33 37 36 36 35 36 36 34 33 31 30 30 31 33 33 31 30 30 30 29 29 29 28 27 25 25 24 23 23 23 23 22 22 23 22 22 22 22
27 31 33 34 36 37 37 36 37 34 32 30 31 30 29 27 28 28 28 30 31 31 30 29 28 28 27 26 26 25 23 22 22 22 22 22 21 22 24 24 25 25 26 24
28 33 35 38 36 35 34 32 31 30 30 29 27 26 26 25 26 26 26 27 28 28 28 27 26 25 26 25 23 22 21 21 21 21 21 21 20 19 19 23 25 25 24 24
34 35 34 36 34 33 32 31 29 28 27 26 25 25 24 23 22 22 22 24 25 25 26 25 24 24 25 24 23 21 21 21 20 20 20 20 19 19 20 18 17 19 22 22
31 32 33 34 35 35 33 30 28 26 25 24 24 24 23 22 21 21 22 22 22 22 22 23 23 23 24 23 21 20 19 19 18 18 18 18 18 18 18 17 16 15 16 17
29 30 30 30 31 33 32 30 28 25 24 23 22 22 21 21 20 20 20 20 19 19 20 21 21 23 24 23 21 20 19 19 19 18 17 17 17 15 14 13 11 10 9 9
26 26 27 27 28 30 28 27 26 24 23 22 21 20 19 18 18 17 17 18 18 18 20 20 20 23 23 22 21 19 18 17 17 16 15 15 13 12 12 11 10 9 8 8
24 24 25 26 27 27 26 25 24 23 22 21 20 19 18 17 16 16 17 18 18 18 19 20 21 21 21 21 20 19 17 16 15 14 13 13 12 12 11 10 8 7 7 6
20 21 22 23 24 26 25 24 23 22 21 20 18 16 16 16 16 17 17 16 16 15 17 20 20 19 19 19 19 18 16 13 13 12 12 11 10 9 9 7 7 6 5 4
18 19 19 20 21 21 21 22 21 20 19 18 17 15 15 15 15 15 15 14 15 16 18 18 17 17 16 17 15 14 13 12 12 11 10 9 8 7 7 6 4 3 2 2
15 16 16 17 17 18 19 20 19 17 17 17 15 14 14 15 15 15 13 12 16 17 17 17 16 15 14 13 13 13 12 11 10 9 8 7 6 6 5 4 3 3 2 1
13 13 13 13 14 14 16 17 16 15 15 14 14 13 12 11 12 12 14 13 15 16 16 15 14 14 13 13 12 11 10 9 9 8 7 6 4 4 3 3 2 2 1 -0
13 13 13 13 12 12 12 13 13 13 12 12 12 12 11 12 13 10 9 14 14 14 13 13 12 12 12 11 11 10 9 8 7 6 5 5 4 3 2 1 1 -1 -2 -2
13 12 12 11 10 9 9 10 10 10 10 10 11 11 11 10 11 13 13 13 13 12 12 12 11 11 10 10 9 8 7 6 5 4 3 2 2 0 0 0 -1 -2 -2 -3
13 12 10 10 9 9 10 10 9 9 8 8 9 10 11 12 9 11 11 11 11 9 9 9 9 8 8 8 7 6 6 5 4 3 3 2 1 -1 -1 -1 -1 -2 -3 -5
14 12 12 12 11 11 10 9 7 8 7 6 7 9 10 11 11 10 10 10 9 8 8 8 7 7 6 6 6 5 5 4 3 2 1 -0 -2 -2 -1 -1 -2 -3 -5 -5
15 13 12 11 11 11 10 9 7 7 8 7 7 9 9 9 9 8 8 9 9 9 8 8 6 5 5 5 5 4 4 3 2 0 -0 -1 -1 -1 -2 -2 -3 -4 -5 -5

GFSNGP_sfc_30mbdewp_114.txt.gz
Dewpoint
13 14 14 12 12 14 12 12 9 3 5 5 8 9 12 15 36 41 41 41 42 47 46 46 48 54 54 54 53 53 54 53 53 55 56 55 55 55 55 55 55 55 55 55
14 16 16 15 17 17 16 15 14 13 11 12 12 12 12 26 37 40 41 41 44 47 46 45 45 46 54 54 53 54 53 53 52 54 55 55 54 54 54 54 54 54 53 52
10 16 15 8 10 13 14 15 14 11 12 13 14 16 36 39 42 43 44 44 45 45 44 44 44 45 46 54 53 53 53 53 52 54 53 54 54 54 54 50 49 47 46 46
13 14 4 3 14 11 11 13 15 15 15 24 23 39 43 44 44 44 43 42 42 42 41 41 43 44 46 48 54 53 53 53 53 53 53 53 53 48 45 43 42 40 39 38
12 12 8 8 6 10 25 23 25 26 28 28 35 41 40 45 43 42 40 39 39 40 39 40 41 42 45 48 54 53 53 53 54 54 52 49 46 43 40 38 36 35 34 34
17 13 6 6 17 30 30 15 32 35 36 36 36 34 38 42 39 38 37 37 37 38 38 38 38 41 45 53 54 53 53 53 53 51 49 46 42 39 36 35 33 32 31 31
19 17 14 15 13 25 16 17 34 35 37 35 34 38 41 39 37 37 36 36 37 37 36 35 37 40 42 42 43 44 48 49 49 47 44 40 37 36 34 32 31 30 29 30
21 17 11 32 31 26 34 37 37 38 37 35 40 41 39 37 36 35 36 35 35 35 34 33 35 37 38 37 37 38 39 39 38 37 37 36 34 33 32 31 29 28 28 28
24 18 31 34 36 38 36 37 37 32 32 40 40 38 36 35 34 34 34 35 33 33 32 31 32 33 34 35 35 34 34 33 33 33 33 32 31 30 29 29 28 27 26 26
28 31 32 34 36 37 38 37 39 41 40 40 38 37 35 32 31 31 32 33 32 32 30 30 30 30 31 32 32 30 29 29 29 30 29 29 29 29 28 28 27 25 23 21
29 32 33 35 36 36 38 38 35 33 33 34 34 32 30 29 29 29 30 31 31 30 29 29 29 28 28 28 28 26 25 25 25 24 24 24 24 24 24 24 24 23 22 22
27 32 33 34 38 36 34 33 34 31 30 30 30 29 28 27 27 27 28 29 28 28 28 27 27 26 26 27 26 25 25 24 24 23 23 23 23 24 27 26 26 25 24 23
31 34 38 37 35 34 32 31 30 30 29 27 27 26 26 25 24 24 25 25 25 26 25 25 24 24 25 25 24 23 23 23 23 23 22 22 22 21 21 25 26 26 25 25
31 32 32 32 34 35 32 30 28 27 26 26 25 24 24 23 22 21 21 22 22 23 24 23 22 21 23 24 23 22 22 22 22 22 22 21 21 21 20 19 18 20 24 23
26 29 29 30 30 31 32 29 26 25 24 24 24 24 23 21 20 20 20 20 20 20 21 22 21 20 22 21 20 20 19 19 20 20 20 20 20 19 18 18 17 16 17 18
25 27 26 27 27 28 28 28 26 24 23 23 22 22 21 20 19 18 19 19 18 18 20 20 20 21 21 20 19 19 19 19 19 18 17 16 16 15 14 13 12 11 10 10
23 23 23 23 25 27 27 26 25 24 23 22 21 21 20 18 18 17 17 18 18 18 19 20 20 21 21 20 19 18 18 17 17 17 16 15 14 13 12 11 9 8 8 8
20 21 22 23 23 24 25 25 25 24 22 21 20 19 18 17 16 16 17 18 18 18 19 20 20 20 20 20 18 17 17 16 15 14 14 13 12 11 10 8 7 6 6 5
18 18 19 20 21 21 23 22 22 21 20 19 18 16 17 17 16 16 16 16 15 15 17 19 20 19 18 19 18 17 15 14 13 12 12 11 10 9 8 6 5 5 4 3
15 16 16 17 18 18 18 19 20 19 19 17 16 15 15 15 15 15 15 14 15 16 17 17 17 16 16 17 17 15 14 13 11 11 10 9 8 7 6 4 3 2 1 1
13 13 13 14 14 15 15 17 16 15 16 16 14 14 13 14 15 15 13 11 15 16 16 16 16 15 15 13 13 12 11 11 10 9 8 7 6 5 4 3 2 2 0 -1
12 11 11 11 11 11 13 14 14 13 13 12 12 12 12 11 12 12 13 12 14 15 14 14 14 13 13 12 11 10 9 8 7 7 6 5 3 2 2 1 1 0 -1 -1
12 11 11 10 10 9 9 10 11 11 11 11 11 11 11 12 12 10 9 13 13 13 12 12 11 11 11 10 9 8 7 6 6 5 4 4 3 2 1 0 -0 -1 -2 -3
11 11 10 9 8 8 8 8 9 10 10 10 10 11 11 10 10 12 12 12 11 11 11 11 10 10 9 8 7 6 5 4 4 3 3 2 1 1 -0 -1 -2 -3 -3 -3
11 11 9 8 8 8 8 8 8 8 8 9 10 11 11 12 9 11 10 10 10 8 8 8 8 8 7 6 6 5 4 4 3 2 2 1 0 0 -1 -2 -2 -3 -3 -5
13 11 10 10 10 9 9 8 7 7 7 7 8 9 10 11 11 10 10 9 8 7 7 6 6 6 6 5 4 4 3 3 2 1 0 -1 -1 -1 -1 -2 -2 -3 -5 -6
13 12 11 10 11 10 9 8 7 6 7 7 7 9 9 9 9 8 8 8 8 7 6 6 5 5 5 4 3 3 2 1 1 -1 -2 -2 -1 -2 -2 -2 -3 -5 -6 -6

GFSNGP_sfc_30mbdewp_120.txt.gz
Dewpoint
4 6 8 13 14 12 10 8 6 9 5 3 3 4 4 7 9 13 17 22 35 40 43 44 44 44 44 45 46 50 55 56 55 54 55 55 56 56 56 56 56 56 57 57
6 6 8 9 8 8 7 9 7 5 6 6 4 3 7 10 11 17 24 35 41 42 42 42 42 42 43 44 45 46 55 55 54 54 55 55 55 55 56 56 56 56 55 53
7 4 3 3 4 5 5 5 6 6 4 3 4 7 11 14 15 27 35 41 41 41 41 41 42 41 42 43 45 46 51 55 54 54 54 55 55 55 55 54 52 49 47 45
11 8 5 1 3 7 6 6 3 4 5 7 12 17 24 25 24 36 41 40 39 39 39 39 40 41 40 42 44 46 48 55 54 53 53 54 54 54 51 48 46 43 40 39
12 6 3 4 6 5 4 3 4 8 18 22 30 34 30 35 40 39 39 38 38 38 38 38 38 37 39 41 42 43 47 54 54 53 53 54 51 48 44 42 39 38 36 36
12 12 7 9 15 17 18 11 29 32 33 34 35 32 35 39 38 38 37 36 36 36 36 35 35 35 38 37 37 37 39 49 54 53 54 50 46 42 40 37 35 34 33 33
17 18 16 17 22 23 14 21 32 35 34 32 34 36 38 37 36 35 35 35 34 34 34 33 32 33 34 34 34 35 37 40 53 53 50 45 41 38 36 34 32 31 31 32
22 19 16 27 23 25 29 34 35 35 37 38 40 38 37 34 33 33 33 33 32 32 31 31 30 30 30 30 32 34 36 36 46 45 42 40 37 35 34 32 30 29 29 28
26 24 31 33 34 34 34 36 37 37 36 37 35 35 33 32 31 31 31 31 30 29 29 28 28 28 28 29 30 33 33 33 33 37 37 37 35 33 32 32 30 28 27 26
27 29 30 31 33 35 36 34 33 34 33 33 32 32 31 29 29 28 28 28 27 27 26 25 26 26 27 29 29 30 31 31 32 32 31 32 32 32 32 30 29 27 26 24
28 28 30 32 31 31 32 33 33 32 30 30 30 29 29 27 26 26 26 25 26 25 25 24 24 25 26 27 28 28 29 29 30 31 28 28 29 29 28 29 28 25 24 23
24 28 28 30 32 33 32 31 33 31 30 28 28 27 27 26 26 25 24 24 24 24 24 23 23 23 25 27 27 27 26 27 27 28 28 27 26 25 28 27 27 26 26 23
26 27 32 30 31 31 31 30 30 29 28 27 26 25 25 25 24 24 23 22 23 23 23 22 22 22 23 25 26 26 26 26 26 26 26 25 24 23 22 25 26 25 25 24
25 26 26 27 28 29 28 28 28 27 26 26 25 24 24 24 23 22 22 22 22 21 21 21 21 21 23 23 24 24 24 25 24 25 24 24 23 22 22 20 20 21 24 24
23 25 25 25 25 26 27 26 26 25 25 24 24 23 23 22 21 21 21 22 21 20 19 20 20 21 23 23 21 21 21 21 22 22 22 22 22 22 22 21 20 20 20 21
20 21 21 22 22 23 24 24 24 24 24 24 23 22 21 21 21 20 21 20 20 19 19 19 19 21 22 23 21 20 20 20 20 19 19 18 18 18 18 19 19 18 16 15
17 18 18 19 20 21 22 23 23 22 22 22 22 21 20 20 20 19 20 20 20 20 20 19 19 21 22 22 21 21 21 20 20 19 18 17 17 16 16 16 15 15 15 13
15 16 17 18 18 18 20 20 21 21 21 21 20 20 19 19 19 19 19 20 19 18 20 21 21 20 20 21 22 22 21 20 20 19 18 17 16 16 15 14 12 10 10 10
14 14 14 15 16 16 17 18 19 20 20 20 19 19 19 19 19 19 19 20 19 18 19 21 21 20 19 21 21 20 19 18 18 17 16 16 15 15 14 11 10 9 8 9
12 12 12 13 14 14 15 16 17 18 18 19 18 18 17 17 18 18 18 17 17 18 19 20 20 19 19 20 20 20 19 18 17 17 16 15 14 11 9 9 9 9 8 8
13 12 12 12 13 13 13 15 16 16 16 17 17 16 16 16 17 18 18 17 17 17 18 18 18 17 17 19 19 19 18 17 16 15 13 11 9 8 8 8 8 7 7 6
14 13 12 12 12 12 12 13 14 14 14 15 15 15 15 16 16 15 15 16 16 17 17 16 15 14 14 16 18 18 17 16 14 12 11 10 9 9 8 7 7 7 6 6
15 14 14 11 11 12 11 11 12 13 13 13 14 15 15 15 16 16 15 15 15 15 15 14 12 13 15 16 16 15 14 13 12 11 10 10 9 8 7 7 6 6 6 6
15 14 13 12 11 11 11 11 11 12 12 13 13 14 16 15 15 14 13 13 14 14 13 13 12 12 13 14 14 13 12 12 11 11 10 9 9 8 7 6 6 6 5 5
15 14 13 12 11 10 11 11 10 11 11 12 13 14 14 14 14 14 13 13 13 12 12 10 11 12 13 12 12 11 11 11 10 10 9 8 8 7 7 6 6 5 5 4
15 13 12 12 11 11 10 10 10 10 10 11 12 13 14 13 13 13 12 12 12 11 11 12 12 11 11 11 10 9 9 8 9 8 8 8 7 6 6 5 4 4 4 4
14 13 11 10 10 10 10 9 10 9 10 11 11 12 12 13 12 12 12 12 11 11 11 11 11 10 10 9 9 8 8 8 7 7 7 7 6 5 5 5 4 4 3 2

GFSNGP_sfc_30mbdewp_123.txt.gz
Dewpoint
9 4 1 2 6 14 17 18 15 12 16 26 16 7 5 4 6 7 8 13 20 27 36 41 42 42 43 44 45 47 47 50 56 57 58 56 56 56 57 56 56 57 57 57
9 6 4 -1 1 6 10 11 12 11 9 9 8 5 3 4 7 10 11 17 27 36 38 41 41 42 42 43 43 46 46 48 54 57 56 55 56 56 56 56 56 56 56 55
10 7 7 0 -2 -1 2 5 10 5 7 6 2 2 6 13 16 18 16 35 36 38 39 40 40 40 41 42 43 44 46 47 49 56 56 56 56 56 56 56 54 50 48 46
14 11 7 3 1 0 3 4 4 4 1 0 6 19 24 24 22 24 35 37 37 39 39 38 39 39 39 40 42 42 43 44 48 55 56 55 55 55 54 51 47 44 41 39
14 12 13 8 18 12 11 9 6 7 9 16 27 31 26 38 38 39 38 38 37 37 37 37 36 36 37 39 39 39 39 41 42 54 55 54 55 51 47 44 41 39 38 36
15 17 10 18 15 17 17 13 27 30 30 31 33 30 33 37 36 35 35 35 34 35 35 34 33 34 35 35 35 35 35 37 39 42 54 53 49 45 42 40 37 36 35 35
18 19 14 29 24 23 18 24 33 34 35 33 31 34 37 38 36 35 34 33 33 33 32 31 31 31 32 32 32 32 34 36 38 40 52 48 44 40 38 35 34 33 32 33
23 20 18 33 27 28 33 32 35 36 34 32 36 37 35 33 33 32 31 31 30 30 30 29 28 28 28 29 30 31 34 35 35 42 46 43 40 36 35 34 32 31 30 29
26 24 32 33 31 33 34 36 35 34 34 33 32 31 31 30 29 29 28 28 27 27 27 28 26 26 26 27 29 30 33 33 33 34 39 39 37 34 33 33 31 29 28 27
28 28 29 31 32 32 32 31 33 35 32 31 30 30 29 28 28 27 26 25 26 26 25 25 25 24 25 27 29 29 30 32 32 32 32 33 34 34 33 31 30 28 26 25
29 28 27 31 32 32 33 33 34 36 31 29 28 28 28 27 26 26 25 24 25 24 24 24 24 23 24 26 28 28 29 30 31 30 29 27 28 29 29 30 30 27 26 24
24 29 28 30 33 30 32 30 30 29 29 28 27 26 27 26 25 25 24 23 23 23 23 23 23 22 23 25 28 28 27 27 28 28 28 26 25 25 27 26 26 26 25 23
27 26 27 30 31 28 29 28 29 27 27 26 26 25 25 25 25 24 23 23 22 22 22 22 22 22 23 24 26 26 26 26 27 26 25 24 23 22 21 25 26 25 25 24
26 26 26 25 25 26 26 26 26 26 26 26 25 25 24 24 23 22 22 23 22 21 21 21 21 22 24 24 23 24 24 24 25 25 24 24 23 22 22 20 19 21 24 24
21 24 23 23 23 23 24 24 25 24 24 24 25 24 23 23 22 22 22 22 23 21 21 21 21 22 25 23 22 21 21 22 23 23 24 23 22 22 21 20 19 19 20 21
19 21 20 21 21 21 21 22 23 23 23 23 23 22 22 23 23 23 22 22 20 20 21 20 20 22 25 25 23 21 21 21 21 21 21 21 21 20 19 18 17 17 17 17
17 17 17 18 19 19 20 21 21 21 22 21 21 21 21 23 23 22 22 22 21 21 22 21 21 22 24 25 25 23 21 21 20 19 19 19 19 19 19 18 18 19 20 21
15 15 16 17 17 17 18 19 20 20 20 21 21 21 20 20 20 21 22 24 24 21 21 22 23 23 22 23 24 23 23 22 20 19 19 18 17 17 16 16 16 16 17 17
13 13 13 14 15 15 16 17 17 19 20 21 20 20 20 19 19 20 20 20 20 20 21 22 23 22 21 23 22 22 21 20 20 19 19 18 17 16 15 15 14 13 12 13
12 12 13 13 14 14 14 15 17 17 18 18 21 20 20 19 19 20 19 18 18 19 22 23 22 21 22 23 22 22 21 20 19 19 18 17 16 15 15 13 13 13 13 13
16 13 13 13 13 14 14 15 15 15 16 17 17 17 18 18 18 19 23 17 18 20 21 20 20 20 21 21 21 22 21 21 20 18 17 16 15 15 13 12 11 11 11 11
17 16 15 14 13 13 14 14 14 14 15 16 16 17 19 20 19 17 17 19 18 21 19 17 17 18 20 22 22 22 21 19 17 15 14 13 12 12 11 10 10 10 10 10
18 16 16 14 13 13 13 15 13 15 13 15 14 16 16 17 17 18 17 16 17 19 16 14 14 16 18 19 19 18 17 16 14 14 13 13 12 11 10 10 10 9 9 9
17 16 15 14 14 15 12 14 12 13 13 17 16 15 16 19 17 18 17 16 15 14 14 15 14 15 17 17 16 16 15 14 14 14 13 12 12 10 10 10 10 9 8 8
16 16 19 16 12 12 13 13 13 15 14 16 16 17 17 17 17 16 17 16 17 15 13 12 14 15 16 15 15 14 14 13 13 12 12 11 10 10 10 9 8 8 7 6
15 14 13 13 12 12 12 13 12 12 11 15 14 16 17 17 16 16 15 16 16 15 15 15 14 14 13 13 12 12 11 11 11 11 11 10 10 9 9 8 7 7 7 7
18 16 11 12 12 11 11 11 12 12 13 14 14 15 15 15 15 15 16 16 15 15 15 14 13 12 12 12 11 11 11 10 10 10 10 9 9 8 7 8 7 7 5 4

GFSNGP_sfc_30mbdewp_126.txt.gz
Dewpoint
9 12 6 1 1 3 6 20 16 18 18 27 32 33 34 33 5 5 7 9 12 19 38 40 41 42 43 43 45 45 45 46 47 50 56 58 59 59 58 58 57 57 57 58
23 16 9 7 9 2 -1 6 12 13 15 17 24 24 18 8 8 12 15 15 19 37 39 39 40 40 41 42 42 43 44 45 47 48 53 57 58 58 57 57 56 57 56 57
14 11 11 6 3 2 -3 -1 3 7 12 14 11 19 25 25 24 23 21 30 36 38 38 39 39 39 39 39 40 42 42 43 44 44 49 57 57 57 56 56 56 53 51 49
15 13 9 10 19 15 1 3 4 3 4 19 29 28 30 37 38 38 38 38 38 37 37 37 37 37 37 38 39 39 40 41 40 40 44 53 57 56 55 52 50 47 44 42
16 10 9 11 25 17 13 10 27 28 30 31 32 30 33 37 36 35 35 35 34 35 35 35 34 34 34 36 36 36 36 36 37 37 39 44 51 53 50 46 43 41 39 37
17 17 10 26 28 28 22 14 35 32 33 33 33 28 32 37 37 36 34 33 32 32 33 32 31 31 31 33 33 33 33 33 35 37 38 41 49 48 45 42 38 36 35 35
22 19 23 28 30 27 21 23 35 34 33 32 30 32 36 36 33 34 33 30 30 30 30 30 29 28 28 29 30 30 32 33 35 36 37 41 47 43 39 37 35 33 32 33
21 17 15 30 26 23 27 32 32 33 34 35 34 32 31 30 29 29 28 28 27 27 27 28 27 26 25 26 28 29 31 32 34 35 37 46 42 38 36 35 32 31 30 29
25 24 31 31 30 32 32 31 31 33 35 31 29 29 29 28 28 27 26 26 26 26 26 26 25 24 24 25 27 29 30 31 33 34 34 37 38 36 34 34 32 30 29 27
26 28 27 31 33 33 33 32 34 35 33 31 28 27 27 27 26 26 25 24 24 24 24 24 24 24 24 24 27 29 29 30 31 31 31 32 33 35 34 32 31 29 27 25
27 29 26 29 32 32 34 34 31 29 30 28 27 27 27 26 25 25 24 23 23 22 22 22 22 23 24 24 27 27 28 28 29 29 28 27 27 27 30 31 31 29 27 25
24 30 29 30 32 28 28 27 28 26 27 27 27 27 26 25 25 24 23 23 22 21 21 23 23 22 23 24 26 26 26 26 26 26 26 26 25 24 27 28 28 28 27 25
29 27 32 27 26 25 25 26 29 25 25 25 25 24 24 24 23 23 22 23 22 22 22 22 22 22 23 24 25 24 24 25 25 25 24 24 24 23 22 25 26 25 24 24
24 24 24 23 23 23 23 24 25 24 24 24 25 24 23 23 23 22 22 23 25 22 22 21 22 23 24 24 23 22 23 25 24 24 23 23 22 22 21 20 19 21 24 24
20 22 21 22 22 21 21 22 22 22 23 22 23 23 24 23 23 23 23 22 23 22 22 21 21 23 26 24 22 21 21 22 23 22 22 22 21 21 21 20 20 20 21 23
19 20 18 19 19 19 20 20 21 21 22 21 21 21 22 24 22 23 23 22 21 21 22 22 21 24 26 26 23 22 21 21 21 22 20 19 19 18 17 17 18 18 19 19
16 16 16 17 17 17 17 19 19 20 20 19 20 21 21 21 22 22 23 25 22 22 22 22 23 24 25 26 25 22 21 21 20 19 19 19 19 19 19 19 19 19 19 21
14 14 14 15 15 15 15 17 17 18 19 20 21 22 21 21 21 21 22 24 23 21 22 23 24 24 25 25 24 24 22 21 20 18 19 17 17 17 17 17 17 17 18 19
13 13 13 13 14 15 14 15 16 18 19 20 20 21 21 20 21 22 21 20 19 18 22 24 23 24 23 24 23 22 22 21 19 18 17 17 17 17 16 16 16 16 16 16
14 14 14 13 14 15 14 15 16 16 17 18 18 19 19 19 19 19 22 19 20 21 22 23 24 23 24 24 22 22 22 20 19 18 17 17 16 16 16 16 15 15 15 14
18 15 15 14 14 16 15 16 15 15 16 18 17 17 18 20 19 19 20 19 20 23 22 21 22 23 24 24 24 23 22 20 18 18 17 16 16 16 15 15 14 14 13 13
19 18 18 15 15 15 15 17 13 17 14 16 16 18 20 21 20 19 19 19 20 21 19 19 21 24 25 25 24 22 20 20 19 18 17 17 16 15 14 14 13 13 12 12
21 19 18 17 15 15 19 18 14 17 13 15 14 15 17 18 17 17 15 16 18 19 18 17 19 22 23 24 23 21 20 19 18 17 16 15 15 14 13 13 13 12 12 12
18 17 17 18 16 18 14 17 14 18 15 18 18 16 18 18 19 19 19 18 16 16 17 19 19 18 20 20 19 19 18 18 17 16 15 14 13 13 13 12 12 11 11 11
19 19 21 15 13 13 14 14 14 15 12 20 16 18 17 17 17 17 19 18 19 17 16 17 18 19 20 19 19 18 17 17 16 15 14 14 14 13 12 12 11 10 9 9
15 14 14 18 16 13 12 11 12 16 12 16 16 18 18 19 19 18 17 17 17 17 17 18 17 16 16 15 15 15 15 15 15 14 14 13 13 13 11 10 10 10 10 9
21 17 12 14 13 13 13 15 13 14 13 13 16 16 18 17 17 18 18 17 17 17 17 16 16 16 16 15 15 15 15 15 14 13 13 11 11 11 11 11 11 8 6 5

GFSNGP_sfc_30mbdewp_132.txt.gz
Dewpoint
21 21 20 20 19 15 12 11 11 10 13 26 30 32 34 36 39 37 36 36 36 37 37 36 36 36 36 36 37 40 40 39 39 40 41 41 41 42 44 48 56 59 59 58
21 19 17 14 24 25 26 27 22 23 27 31 33 34 36 36 35 34 34 33 34 34 34 33 33 33 33 34 36 37 37 37 37 36 36 37 38 40 41 46 50 59 59 58
16 17 18 18 23 26 28 29 29 24 29 31 31 35 34 35 35 34 33 33 31 32 32 32 31 30 30 32 33 33 35 34 33 33 34 35 36 38 40 42 45 53 58 58
20 19 11 21 22 27 27 26 28 29 29 30 32 34 35 34 33 32 32 30 29 29 31 30 29 28 28 29 28 31 31 30 30 31 32 33 35 37 38 40 43 51 55 54
19 17 17 15 20 23 23 24 27 27 29 31 33 32 33 32 30 29 27 26 26 27 28 27 26 26 26 26 26 26 26 27 29 30 31 33 34 36 37 38 40 46 48 48
21 17 13 21 24 25 24 20 28 30 29 30 31 26 29 32 28 26 25 25 24 25 25 25 24 25 25 24 24 24 25 26 28 30 31 32 34 35 36 38 40 41 39 40
19 17 21 26 27 25 14 17 29 31 30 30 28 30 33 28 27 26 24 24 23 23 23 23 23 23 23 23 23 24 24 26 28 29 31 33 34 34 36 39 39 37 35 34
19 13 11 30 25 20 26 30 30 31 30 30 31 31 28 26 26 25 24 23 22 21 22 22 22 22 22 22 22 24 24 26 27 29 30 30 30 33 37 37 36 34 33 31
23 23 29 32 30 31 31 30 30 31 31 30 29 26 27 25 24 24 23 22 22 20 20 20 21 23 22 21 22 23 24 25 27 27 28 28 28 30 33 35 33 32 32 30
25 27 29 30 32 32 32 32 32 28 28 27 26 26 25 24 23 22 21 21 23 19 20 19 20 22 23 22 22 22 23 24 25 26 26 27 27 28 30 33 33 32 31 30
26 28 29 31 31 31 29 31 27 27 26 26 25 25 24 24 22 21 21 21 23 21 20 20 20 21 23 22 22 22 22 23 24 24 25 25 25 26 27 29 32 32 31 29
22 28 28 29 30 29 26 28 25 25 25 25 25 25 24 24 24 21 20 20 21 21 20 21 21 21 23 22 22 22 21 22 22 23 23 22 22 23 26 29 30 31 29 28
27 30 30 29 24 25 24 25 24 24 24 23 23 22 23 25 24 21 21 20 20 21 20 20 21 21 23 23 22 21 21 21 20 21 21 21 20 21 21 23 28 29 29 28
29 24 25 21 20 22 22 22 22 21 22 22 22 22 23 23 22 21 21 20 18 19 19 19 21 21 24 23 21 20 21 20 19 19 19 19 20 21 21 21 21 23 26 27
19 21 20 19 18 19 20 20 19 19 20 19 20 21 22 21 21 20 20 20 18 18 19 19 20 21 23 22 21 20 19 20 20 19 20 20 19 19 19 20 21 22 23 25
18 18 17 17 17 17 17 17 17 17 19 18 17 18 21 21 21 20 19 21 19 18 19 20 20 22 23 23 22 20 20 19 19 19 19 19 19 18 17 17 17 18 18 18
16 14 15 15 15 15 15 16 15 17 17 15 16 16 18 19 18 17 18 17 19 18 20 21 21 23 23 22 20 20 19 18 18 18 18 18 18 18 18 17 16 16 17 18
15 15 15 15 15 15 14 14 14 14 14 14 17 15 16 16 16 17 18 17 17 18 19 21 22 23 23 22 21 20 19 18 18 17 17 16 16 17 16 16 15 15 16 17
15 14 14 14 15 15 13 13 12 14 14 14 15 13 14 15 16 17 17 16 16 17 18 21 22 23 22 22 20 19 18 18 17 17 16 16 15 15 15 15 14 14 14 14
16 16 14 13 14 15 15 15 13 13 14 12 14 12 13 15 16 17 18 16 17 18 20 20 21 23 23 21 19 18 17 17 16 16 15 15 14 14 14 13 13 13 12 12
16 17 15 13 14 14 14 15 13 12 14 10 13 12 13 15 16 14 13 14 16 18 19 19 20 23 22 20 20 18 17 17 16 15 14 14 13 13 13 12 12 12 11 11
17 17 16 14 13 14 15 16 15 12 13 12 13 12 14 15 15 15 14 14 16 17 18 18 20 22 21 20 19 18 17 16 15 15 14 14 13 12 12 11 11 11 10 10
18 17 16 15 14 14 14 15 15 15 14 14 15 14 13 15 15 13 11 15 17 18 18 19 20 20 20 19 18 17 16 15 15 14 13 13 13 12 12 11 11 10 10 10
15 16 17 17 13 12 10 12 14 14 15 16 16 15 15 13 11 16 17 17 17 17 17 18 17 18 18 17 16 16 15 14 13 13 13 12 12 12 11 11 10 10 9 9
15 15 17 15 12 11 12 13 14 10 11 15 15 15 15 16 15 15 15 16 16 16 16 16 16 16 16 15 15 14 13 13 12 12 11 10 10 9 9 9 8 7 7 7
15 16 15 14 13 13 13 13 13 10 10 13 14 14 15 14 15 16 15 14 14 14 14 15 15 14 14 13 13 13 13 12 11 11 10 9 8 8 7 7 6 5 4 4
16 16 13 12 14 15 13 11 13 12 12 13 13 13 14 14 14 14 13 12 12 13 13 13 13 12 12 11 12 12 12 11 10 10 9 9 8 6 5 4 3 3 2 2

GFSNGP_sfc_30mbdewp_135.txt.gz
Dewpoint
20 21 21 21 22 24 22 22 20 20 25 29 32 35 37 37 37 36 35 36 36 35 34 32 31 30 31 32 34 35 36 37 35 35 36 36 37 38 39 41 42 46 50 58
22 23 22 20 21 24 25 25 25 24 24 30 31 35 35 34 34 33 32 31 30 32 31 29 28 28 29 29 29 32 34 32 32 32 33 34 35 36 38 40 41 42 46 49
17 19 19 19 21 23 26 26 27 22 27 29 28 33 32 32 30 29 28 26 26 27 28 28 27 27 27 27 27 29 29 28 29 30 31 32 34 35 37 38 38 40 42 46
19 19 12 21 21 22 26 25 25 26 27 28 30 33 31 30 28 26 25 25 25 25 26 25 25 25 26 26 25 26 25 25 26 28 30 31 33 34 35 36 37 39 41 45
18 18 18 18 21 22 22 23 27 27 28 27 29 31 31 29 27 26 24 24 23 23 24 24 23 23 24 24 24 24 24 24 25 27 29 30 31 33 34 35 37 38 40 41
20 16 13 22 24 27 26 19 28 29 27 28 28 23 27 29 27 25 24 23 23 22 22 22 22 22 22 22 22 22 23 24 25 27 28 29 31 32 33 34 36 38 38 38
18 15 19 26 27 26 15 16 29 30 29 28 26 28 31 27 25 24 23 23 23 20 20 20 20 21 22 21 21 22 23 24 25 26 27 28 29 29 30 32 36 37 35 35
18 14 9 29 25 19 26 30 30 30 30 29 30 28 26 25 24 22 22 21 22 20 19 20 19 20 21 20 22 22 22 23 23 25 26 27 27 28 29 31 34 34 33 33
21 22 28 31 29 31 31 30 30 30 30 27 26 25 25 24 22 21 21 20 20 21 19 19 19 20 20 22 21 21 22 22 22 24 24 25 26 26 27 29 32 33 32 31
24 26 29 29 32 32 32 31 31 28 27 26 25 24 23 23 22 21 20 20 20 21 19 19 20 20 21 21 22 21 21 21 22 22 23 23 24 25 26 27 28 31 32 30
24 28 29 30 30 31 30 30 26 26 26 25 24 24 25 23 23 21 20 20 20 20 19 19 20 21 21 23 21 20 20 21 20 21 21 21 22 22 24 26 28 28 31 31
18 27 26 29 29 29 27 25 25 24 24 24 23 22 23 23 24 22 21 21 19 19 19 19 19 20 21 23 22 20 19 20 19 19 19 20 19 19 21 24 28 29 31 30
27 30 29 27 24 24 25 23 23 22 22 21 22 22 22 22 23 21 20 19 19 18 19 19 19 20 21 23 21 20 19 19 18 18 18 18 18 19 18 20 23 27 29 29
25 30 21 21 21 21 21 21 20 20 20 20 20 21 21 20 20 19 19 19 18 17 18 18 18 19 21 22 21 19 18 19 19 19 19 19 18 18 18 18 19 21 25 27
20 20 20 19 19 19 18 18 17 17 19 18 17 17 18 19 19 19 19 19 19 17 17 18 18 19 22 22 20 19 19 18 19 19 19 19 19 18 16 16 16 17 17 18
18 17 17 17 16 16 16 15 14 15 16 15 15 16 17 19 19 18 17 17 17 16 17 18 18 21 22 21 19 19 18 19 19 18 18 18 18 17 16 16 16 16 16 17
16 15 15 15 15 15 14 14 13 13 14 12 13 15 14 16 16 15 15 17 16 17 18 19 19 22 22 21 19 19 18 18 18 17 17 17 16 15 15 15 15 15 15 17
15 15 15 14 14 14 12 12 11 12 13 12 14 12 11 12 13 14 15 16 15 15 16 19 20 22 21 21 19 18 18 18 17 16 16 15 15 15 15 14 13 13 14 15
15 14 14 13 14 14 12 13 13 12 14 12 12 11 11 13 14 15 16 14 14 14 15 19 20 21 21 20 18 17 17 16 16 16 16 15 14 14 13 13 12 12 12 12
16 15 14 13 13 14 15 15 15 12 12 12 11 11 11 12 14 13 13 13 15 16 17 19 20 21 20 19 18 17 16 16 15 15 14 14 13 13 12 12 12 11 11 10
17 16 14 13 14 14 14 14 14 14 12 11 12 12 12 13 13 12 11 11 13 16 17 18 19 21 21 19 18 17 16 15 14 14 14 13 12 12 11 11 11 10 10 10
16 16 15 14 13 13 14 14 15 13 12 13 13 12 11 13 12 12 11 13 15 17 17 18 19 20 19 18 17 16 15 14 14 13 13 13 12 11 10 10 10 10 10 9
17 17 16 15 14 13 9 13 13 13 14 14 13 13 12 13 13 12 10 14 16 17 16 17 17 18 18 17 15 15 14 13 13 12 12 12 11 11 10 9 9 9 9 9
15 15 16 14 11 10 10 13 11 9 13 14 14 13 13 13 11 14 14 14 15 15 15 16 16 16 16 15 14 13 12 12 11 11 11 10 10 9 9 8 8 8 8 8
14 15 15 14 11 10 12 12 11 8 11 13 13 14 14 13 13 14 12 12 13 13 13 14 14 14 14 13 13 12 11 10 10 9 8 7 7 7 7 6 6 6 6 6
15 15 14 13 12 12 11 12 11 10 11 11 12 12 12 11 13 13 12 11 12 12 12 12 12 11 11 12 11 11 10 9 8 7 7 6 6 5 4 4 3 3 3 4
16 14 13 11 14 14 12 11 11 10 12 11 11 11 11 11 11 11 11 11 11 11 11 11 11 11 11 10 10 10 9 9 8 7 6 5 4 3 2 2 2 2 2 3